Time,TemperatureF,DewpointF,PressureIn,WindDirection,WindDirectionDegrees,WindSpeedMPH,WindSpeedGustMPH,Humidity,HourlyPrecipIn,Conditions,Clouds,dailyrainin,SoftwareType,DateUTC
2013-11-08 06:30:00,44.9,34.6,30.16,North,0,0.0,0.0,67,0.00,,---,0.00,VWS V14.00,2013-11-08 12:30:00,
2013-11-08 07:29:00,44.6,39.5,30.17,WSW,247,0.0,0.0,82,0.00,,---,0.00,VWS V14.00,2013-11-08 13:29:00,
2013-11-08 07:30:00,44.6,39.5,30.17,WSW,247,0.0,0.0,82,0.00,,---,0.00,VWS V14.00,2013-11-08 13:30:00,
2013-11-08 07:34:00,44.5,39.4,30.16,WSW,247,0.0,0.0,82,0.00,,---,0.00,VWS V14.00,2013-11-08 13:34:00,
2013-11-08 07:35:00,44.5,39.4,30.16,WSW,247,0.0,0.0,82,0.00,,---,0.00,VWS V14.00,2013-11-08 13:35:00,
2013-11-08 07:39:00,44.6,39.5,30.16,WSW,247,0.0,0.0,82,0.00,,---,0.00,VWS V14.00,2013-11-08 13:39:00,
2013-11-08 07:40:00,44.6,39.5,30.16,WSW,247,0.0,0.0,82,0.00,,---,0.00,VWS V14.00,2013-11-08 13:40:00,
2013-11-08 07:41:00,44.6,39.5,30.16,WSW,247,0.0,0.0,82,0.00,,---,0.00,VWS V14.00,2013-11-08 13:41:00,
2013-11-08 07:44:00,44.6,39.5,30.16,WSW,247,0.0,0.0,82,0.00,,---,0.00,VWS V14.00,2013-11-08 13:44:00,
2013-11-08 07:45:00,44.6,39.5,30.16,WSW,247,0.0,0.0,82,0.00,,---,0.00,VWS V14.00,2013-11-08 13:45:00,
2013-11-08 07:46:00,44.6,39.8,30.15,WSW,247,0.0,0.0,83,0.00,,---,0.00,VWS V14.00,2013-11-08 13:46:00,
2013-11-08 07:49:00,44.6,39.8,30.15,WSW,247,0.0,0.0,83,0.00,,---,0.00,VWS V14.00,2013-11-08 13:49:00,
2013-11-08 07:50:00,44.6,39.8,30.15,WSW,247,0.0,0.0,83,0.00,,---,0.00,VWS V14.00,2013-11-08 13:50:00,
2013-11-08 07:51:00,44.6,39.8,30.15,WSW,247,0.0,0.0,83,0.00,,---,0.00,VWS V14.00,2013-11-08 13:51:00,
2013-11-08 07:52:00,44.6,39.8,30.15,WSW,247,0.0,0.0,83,0.00,,---,0.00,VWS V14.00,2013-11-08 13:52:00,
2013-11-08 07:55:00,44.6,39.8,30.15,WSW,247,0.0,0.0,83,0.00,,---,0.00,VWS V14.00,2013-11-08 13:55:00,
2013-11-08 07:56:00,44.6,39.8,30.15,WSW,247,0.0,0.0,83,0.00,,---,0.00,VWS V14.00,2013-11-08 13:56:00,
2013-11-08 07:57:00,44.8,40.0,30.15,WSW,247,0.0,0.0,83,0.00,,---,0.00,VWS V14.00,2013-11-08 13:57:00,
2013-11-08 08:00:00,44.8,40.3,30.15,WSW,247,0.0,0.0,84,0.00,,---,0.00,VWS V14.00,2013-11-08 14:00:00,
2013-11-08 08:01:00,44.8,40.3,30.15,WSW,247,0.0,0.0,84,0.00,,---,0.00,VWS V14.00,2013-11-08 14:01:00,
2013-11-08 08:02:00,44.8,40.3,30.15,WSW,247,0.0,0.0,84,0.00,,---,0.00,VWS V14.00,2013-11-08 14:02:00,
2013-11-08 08:03:00,44.8,40.3,30.15,WSW,247,0.0,0.0,84,0.00,,---,0.00,VWS V14.00,2013-11-08 14:03:00,
2013-11-08 08:05:00,44.8,40.3,30.15,WSW,247,0.0,0.0,84,0.00,,---,0.00,VWS V14.00,2013-11-08 14:05:00,
2013-11-08 08:06:00,44.8,40.3,30.15,WSW,247,0.0,0.0,84,0.00,,---,0.00,VWS V14.00,2013-11-08 14:06:00,
2013-11-08 08:07:00,44.8,40.3,30.15,WSW,247,0.0,0.0,84,0.00,,---,0.00,VWS V14.00,2013-11-08 14:07:00,
2013-11-08 08:08:00,44.8,40.3,30.15,WSW,247,0.0,0.0,84,0.00,,---,0.00,VWS V14.00,2013-11-08 14:08:00,
2013-11-08 08:10:00,45.1,40.6,30.15,WSW,247,0.0,0.0,84,0.00,,---,0.00,VWS V14.00,2013-11-08 14:10:00,
2013-11-08 08:11:00,45.1,40.9,30.15,WSW,247,0.0,0.0,85,0.00,,---,0.00,VWS V14.00,2013-11-08 14:11:00,
2013-11-08 08:12:00,45.1,40.9,30.15,WSW,247,0.0,0.0,85,0.00,,---,0.00,VWS V14.00,2013-11-08 14:12:00,
2013-11-08 08:13:00,45.1,40.9,30.15,WSW,247,0.0,0.0,85,0.00,,---,0.00,VWS V14.00,2013-11-08 14:13:00,
2013-11-08 08:15:00,45.2,41.0,30.15,WSW,247,0.0,0.0,85,0.00,,---,0.00,VWS V14.00,2013-11-08 14:15:00,
2013-11-08 08:16:00,45.2,41.0,30.15,WSW,247,0.0,0.0,85,0.00,,---,0.00,VWS V14.00,2013-11-08 14:16:00,
2013-11-08 08:17:00,45.2,41.0,30.15,WSW,247,0.0,0.0,85,0.00,,---,0.00,VWS V14.00,2013-11-08 14:17:00,
2013-11-08 08:18:00,45.2,41.0,30.15,WSW,247,0.0,0.0,85,0.00,,---,0.00,VWS V14.00,2013-11-08 14:18:00,
2013-11-08 08:19:00,45.2,41.0,30.15,WSW,247,0.0,0.0,85,0.00,,---,0.00,VWS V14.00,2013-11-08 14:19:00,
2013-11-08 08:20:00,45.2,41.0,30.15,WSW,247,0.0,0.0,85,0.00,,---,0.00,VWS V14.00,2013-11-08 14:20:00,
2013-11-08 08:21:00,45.2,41.0,30.15,WSW,247,0.0,0.0,85,0.00,,---,0.00,VWS V14.00,2013-11-08 14:21:00,
2013-11-08 08:22:00,45.2,41.0,30.15,WSW,247,0.0,0.0,85,0.00,,---,0.00,VWS V14.00,2013-11-08 14:22:00,
2013-11-08 08:23:00,45.2,41.0,30.15,WSW,247,0.0,0.0,85,0.00,,---,0.00,VWS V14.00,2013-11-08 14:23:00,
2013-11-08 08:24:00,45.2,41.0,30.15,WSW,247,0.0,0.0,85,0.00,,---,0.00,VWS V14.00,2013-11-08 14:24:00,
2013-11-08 08:25:00,45.5,41.3,30.15,WSW,247,0.0,0.0,85,0.00,,---,0.00,VWS V14.00,2013-11-08 14:25:00,
2013-11-08 08:26:00,45.5,41.3,30.15,WSW,247,0.0,0.0,85,0.00,,---,0.00,VWS V14.00,2013-11-08 14:26:00,
2013-11-08 08:27:00,45.5,41.3,30.15,WSW,247,0.0,0.0,85,0.00,,---,0.00,VWS V14.00,2013-11-08 14:27:00,
2013-11-08 08:28:00,45.5,41.3,30.15,WSW,247,0.0,0.0,85,0.00,,---,0.00,VWS V14.00,2013-11-08 14:28:00,
2013-11-08 08:29:00,45.5,41.3,30.15,WSW,247,0.0,0.0,85,0.00,,---,0.00,VWS V14.00,2013-11-08 14:29:00,
2013-11-08 08:30:00,45.7,41.5,30.15,WSW,247,0.0,0.0,85,0.00,,---,0.00,VWS V14.00,2013-11-08 14:30:00,
2013-11-08 08:31:00,45.7,41.5,30.15,WSW,247,0.0,0.0,85,0.00,,---,0.00,VWS V14.00,2013-11-08 14:31:00,
2013-11-08 08:32:00,45.7,41.8,30.15,WSW,247,0.0,0.0,86,0.00,,---,0.00,VWS V14.00,2013-11-08 14:32:00,
2013-11-08 08:33:00,45.7,41.8,30.15,WSW,247,0.0,0.0,86,0.00,,---,0.00,VWS V14.00,2013-11-08 14:33:00,
2013-11-08 08:34:00,45.8,41.9,30.15,WSW,247,0.0,0.0,86,0.00,,---,0.00,VWS V14.00,2013-11-08 14:34:00,
2013-11-08 08:35:00,45.8,41.9,30.15,WSW,247,0.0,0.0,86,0.00,,---,0.00,VWS V14.00,2013-11-08 14:35:00,
2013-11-08 08:37:00,45.8,41.9,30.15,WSW,247,0.0,0.0,86,0.00,,---,0.00,VWS V14.00,2013-11-08 14:37:00,
2013-11-08 08:38:00,45.8,41.9,30.15,WSW,247,0.0,0.0,86,0.00,,---,0.00,VWS V14.00,2013-11-08 14:38:00,
2013-11-08 08:39:00,46.0,42.0,30.15,WSW,247,0.0,0.0,86,0.00,,---,0.00,VWS V14.00,2013-11-08 14:39:00,
2013-11-08 08:40:00,46.0,42.0,30.15,WSW,247,0.0,0.0,86,0.00,,---,0.00,VWS V14.00,2013-11-08 14:40:00,
2013-11-08 08:42:00,46.0,42.0,30.15,WSW,247,0.0,0.0,86,0.00,,---,0.00,VWS V14.00,2013-11-08 14:42:00,
2013-11-08 08:43:00,46.1,42.2,30.15,WSW,247,0.0,0.0,86,0.00,,---,0.00,VWS V14.00,2013-11-08 14:43:00,
2013-11-08 08:44:00,46.1,42.2,30.15,WSW,247,0.0,0.0,86,0.00,,---,0.00,VWS V14.00,2013-11-08 14:44:00,
2013-11-08 08:45:00,46.1,42.2,30.15,WSW,247,0.0,0.0,86,0.00,,---,0.00,VWS V14.00,2013-11-08 14:45:00,
2013-11-08 08:47:00,46.2,42.2,30.16,WSW,247,0.0,0.0,86,0.00,,---,0.00,VWS V14.00,2013-11-08 14:47:00,
2013-11-08 08:48:00,46.2,42.2,30.16,WSW,247,0.0,0.0,86,0.00,,---,0.00,VWS V14.00,2013-11-08 14:48:00,
2013-11-08 08:49:00,46.2,42.2,30.16,WSW,247,0.0,0.0,86,0.00,,---,0.00,VWS V14.00,2013-11-08 14:49:00,
2013-11-08 08:51:00,46.4,42.5,30.16,WSW,247,0.0,0.0,86,0.00,,---,0.00,VWS V14.00,2013-11-08 14:51:00,
2013-11-08 08:52:00,46.4,42.5,30.16,WSW,247,0.0,0.0,86,0.00,,---,0.00,VWS V14.00,2013-11-08 14:52:00,
2013-11-08 08:54:00,46.4,42.5,30.16,WSW,247,0.0,0.0,86,0.00,,---,0.00,VWS V14.00,2013-11-08 14:54:00,
2013-11-08 08:55:00,46.5,42.5,30.16,WSW,247,0.0,0.0,86,0.00,,---,0.00,VWS V14.00,2013-11-08 14:55:00,
2013-11-08 08:56:00,46.5,42.2,30.16,WSW,247,0.0,0.0,85,0.00,,---,0.00,VWS V14.00,2013-11-08 14:56:00,
2013-11-08 08:57:00,46.5,42.2,30.16,WSW,247,0.0,0.0,85,0.00,,---,0.00,VWS V14.00,2013-11-08 14:57:00,
2013-11-08 08:59:00,46.5,41.9,30.16,WSW,247,0.0,0.0,84,0.00,,---,0.00,VWS V14.00,2013-11-08 14:59:00,
2013-11-08 09:00:00,46.5,41.9,30.16,WSW,247,0.0,0.0,84,0.00,,---,0.00,VWS V14.00,2013-11-08 15:00:00,
2013-11-08 09:01:00,46.7,42.1,30.15,WSW,247,0.0,0.0,84,0.00,,---,0.00,VWS V14.00,2013-11-08 15:01:00,
2013-11-08 09:02:00,46.7,42.1,30.15,WSW,247,0.0,0.0,84,0.00,,---,0.00,VWS V14.00,2013-11-08 15:02:00,
2013-11-08 09:04:00,47.0,42.4,30.15,WSW,247,0.0,0.0,84,0.00,,---,0.00,VWS V14.00,2013-11-08 15:04:00,
2013-11-08 09:05:00,47.0,42.4,30.15,WSW,247,0.0,0.0,84,0.00,,---,0.00,VWS V14.00,2013-11-08 15:05:00,
2013-11-08 09:06:00,47.0,42.4,30.15,WSW,248,0.0,0.0,84,0.00,,---,0.00,VWS V14.00,2013-11-08 15:06:00,
2013-11-08 09:07:00,47.1,42.5,30.15,WSW,248,0.0,0.0,84,0.00,,---,0.00,VWS V14.00,2013-11-08 15:07:00,
2013-11-08 09:09:00,47.3,42.7,30.15,WSW,248,0.0,0.0,84,0.00,,---,0.00,VWS V14.00,2013-11-08 15:09:00,
2013-11-08 09:10:00,47.3,42.7,30.15,WSW,248,0.0,0.0,84,0.00,,---,0.00,VWS V14.00,2013-11-08 15:10:00,
2013-11-08 09:11:00,47.4,42.8,30.15,WSW,248,0.0,0.0,84,0.00,,---,0.00,VWS V14.00,2013-11-08 15:11:00,
2013-11-08 09:12:00,47.6,43.0,30.15,WSW,253,0.0,0.0,84,0.00,,---,0.00,VWS V14.00,2013-11-08 15:12:00,
2013-11-08 09:15:00,47.6,43.0,30.15,WSW,253,0.0,0.0,84,0.00,,---,0.00,VWS V14.00,2013-11-08 15:15:00,
2013-11-08 09:16:00,47.6,43.0,30.14,WSW,254,0.0,0.0,84,0.00,,---,0.00,VWS V14.00,2013-11-08 15:16:00,
2013-11-08 09:17:00,47.7,43.1,30.14,WSW,254,0.0,0.0,84,0.00,,---,0.00,VWS V14.00,2013-11-08 15:17:00,
2013-11-08 09:20:00,47.7,43.1,30.14,WSW,254,0.0,0.0,84,0.00,,---,0.00,VWS V14.00,2013-11-08 15:20:00,
2013-11-08 09:21:00,47.7,43.1,30.14,WSW,254,0.0,0.0,84,0.00,,---,0.00,VWS V14.00,2013-11-08 15:21:00,
2013-11-08 09:22:00,47.7,43.1,30.14,WSW,254,0.0,0.0,84,0.00,,---,0.00,VWS V14.00,2013-11-08 15:22:00,
2013-11-08 09:25:00,47.9,43.3,30.14,WSW,254,0.0,0.0,84,0.00,,---,0.00,VWS V14.00,2013-11-08 15:25:00,
2013-11-08 09:26:00,47.9,43.3,30.14,WSW,254,0.0,0.0,84,0.00,,---,0.00,VWS V14.00,2013-11-08 15:26:00,
2013-11-08 09:27:00,47.9,43.3,30.14,SSW,210,7.0,7.0,84,0.00,,---,0.00,VWS V14.00,2013-11-08 15:27:00,
2013-11-08 09:28:00,47.9,43.3,30.14,SSW,210,0.0,7.0,84,0.00,,---,0.00,VWS V14.00,2013-11-08 15:28:00,
2013-11-08 09:30:00,47.4,42.8,30.16,West,272,0.0,8.0,84,0.00,,---,0.00,VWS V14.00,2013-11-08 15:30:00,
2013-11-08 09:31:00,47.4,42.8,30.16,West,271,0.0,8.0,84,0.00,,---,0.00,VWS V14.00,2013-11-08 15:31:00,
2013-11-08 09:32:00,47.3,42.7,30.16,WSW,240,2.0,5.0,84,0.00,,---,0.00,VWS V14.00,2013-11-08 15:32:00,
2013-11-08 09:33:00,47.3,42.7,30.16,WSW,237,0.0,5.0,84,0.00,,---,0.00,VWS V14.00,2013-11-08 15:33:00,
2013-11-08 09:35:00,47.3,42.7,30.16,SW,236,0.0,5.0,84,0.00,,---,0.00,VWS V14.00,2013-11-08 15:35:00,
2013-11-08 09:36:00,47.1,42.5,30.16,SW,236,0.0,5.0,84,0.00,,---,0.00,VWS V14.00,2013-11-08 15:36:00,
2013-11-08 09:37:00,47.0,42.4,30.16,SW,233,2.0,7.0,84,0.00,,---,0.00,VWS V14.00,2013-11-08 15:37:00,
2013-11-08 09:38:00,47.0,42.4,30.16,SW,234,0.0,7.0,84,0.00,,---,0.00,VWS V14.00,2013-11-08 15:38:00,
2013-11-08 09:40:00,47.0,42.7,30.16,SW,234,0.0,7.0,85,0.00,,---,0.00,VWS V14.00,2013-11-08 15:40:00,
2013-11-08 09:41:00,47.0,42.7,30.16,SW,234,0.0,7.0,85,0.00,,---,0.00,VWS V14.00,2013-11-08 15:41:00,
2013-11-08 09:42:00,47.0,42.7,30.16,SW,234,0.0,7.0,85,0.00,,---,0.00,VWS V14.00,2013-11-08 15:42:00,
2013-11-08 09:43:00,47.0,42.7,30.16,SW,234,2.0,7.0,85,0.00,,---,0.00,VWS V14.00,2013-11-08 15:43:00,
2013-11-08 09:46:00,46.8,42.5,30.16,West,275,0.0,7.0,85,0.00,,---,0.00,VWS V14.00,2013-11-08 15:46:00,
2013-11-08 09:48:00,46.5,42.2,30.16,West,264,6.0,7.0,85,0.00,,---,0.00,VWS V14.00,2013-11-08 15:48:00,
2013-11-08 09:51:00,46.4,42.5,30.16,SW,224,3.0,11.0,86,0.00,,---,0.00,VWS V14.00,2013-11-08 15:51:00,
2013-11-08 09:53:00,46.4,42.5,30.16,West,261,4.0,11.0,86,0.00,,---,0.00,VWS V14.00,2013-11-08 15:53:00,
2013-11-08 09:56:00,46.4,42.5,30.16,West,261,4.0,11.0,86,0.00,,---,0.00,VWS V14.00,2013-11-08 15:56:00,
2013-11-08 09:58:00,46.4,42.5,30.16,West,261,4.0,11.0,86,0.00,,---,0.00,VWS V14.00,2013-11-08 15:58:00,
2013-11-08 09:59:00,46.4,42.5,30.16,West,268,2.0,11.0,86,0.00,,---,0.00,VWS V14.00,2013-11-08 15:59:00,
2013-11-08 10:02:00,46.4,42.5,30.16,WSW,258,0.0,0.0,86,0.00,,---,0.00,VWS V14.00,2013-11-08 16:02:00,
2013-11-08 10:03:00,46.5,42.8,30.16,West,277,0.0,0.0,87,0.00,,---,0.00,VWS V14.00,2013-11-08 16:03:00,
2013-11-08 10:04:00,46.5,42.8,30.16,West,271,0.0,0.0,87,0.00,,---,0.00,VWS V14.00,2013-11-08 16:04:00,
2013-11-08 10:06:00,46.5,42.8,30.16,WSW,256,0.0,0.0,87,0.00,,---,0.00,VWS V14.00,2013-11-08 16:06:00,
2013-11-08 10:07:00,46.4,42.8,30.16,WSW,253,0.0,0.0,87,0.00,,---,0.00,VWS V14.00,2013-11-08 16:07:00,
2013-11-08 10:08:00,46.4,42.8,30.16,SW,222,0.0,0.0,87,0.00,,---,0.00,VWS V14.00,2013-11-08 16:08:00,
2013-11-08 10:09:00,46.4,42.8,30.16,SW,222,0.0,0.0,87,0.00,,---,0.00,VWS V14.00,2013-11-08 16:09:00,
2013-11-08 10:11:00,46.4,42.8,30.16,West,267,0.0,0.0,87,0.00,,---,0.00,VWS V14.00,2013-11-08 16:11:00,
2013-11-08 10:12:00,46.4,42.8,30.16,West,267,0.0,0.0,87,0.00,,---,0.00,VWS V14.00,2013-11-08 16:12:00,
2013-11-08 10:14:00,46.4,43.0,30.16,West,267,0.0,0.0,88,0.00,,---,0.00,VWS V14.00,2013-11-08 16:14:00,
2013-11-08 10:16:00,46.4,43.0,30.16,West,267,0.0,0.0,88,0.00,,---,0.00,VWS V14.00,2013-11-08 16:16:00,
2013-11-08 10:17:00,46.2,42.8,30.16,WSW,253,0.0,0.0,88,0.00,,---,0.00,VWS V14.00,2013-11-08 16:17:00,
2013-11-08 10:19:00,46.2,42.8,30.16,WSW,254,0.0,0.0,88,0.00,,---,0.00,VWS V14.00,2013-11-08 16:19:00,
2013-11-08 10:20:00,46.2,42.8,30.16,WSW,257,0.0,0.0,88,0.00,,---,0.00,VWS V14.00,2013-11-08 16:20:00,
2013-11-08 10:22:00,46.2,42.8,30.16,SW,232,0.0,0.0,88,0.00,,---,0.00,VWS V14.00,2013-11-08 16:22:00,
2013-11-08 10:24:00,46.2,42.8,30.16,WSW,237,0.0,0.0,88,0.00,,---,0.00,VWS V14.00,2013-11-08 16:24:00,
2013-11-08 10:25:00,46.2,42.8,30.16,SW,236,0.0,0.0,88,0.00,,---,0.00,VWS V14.00,2013-11-08 16:25:00,
2013-11-08 10:27:00,46.2,42.8,30.16,SW,219,0.0,0.0,88,0.00,,---,0.00,VWS V14.00,2013-11-08 16:27:00,
2013-11-08 10:30:00,46.1,42.8,30.16,West,272,4.0,8.0,88,0.00,,---,0.00,VWS V14.00,2013-11-08 16:30:00,
2013-11-08 10:32:00,46.1,43.0,30.15,West,270,0.0,7.0,89,0.00,,---,0.00,VWS V14.00,2013-11-08 16:32:00,
2013-11-08 10:35:00,46.2,43.1,30.15,SSW,210,0.0,7.0,89,0.00,,---,0.00,VWS V14.00,2013-11-08 16:35:00,
2013-11-08 10:36:00,46.2,43.1,30.15,West,265,5.0,7.0,89,0.00,,---,0.00,VWS V14.00,2013-11-08 16:36:00,
2013-11-08 10:37:00,46.2,43.1,30.15,SW,232,5.0,7.0,89,0.00,,---,0.00,VWS V14.00,2013-11-08 16:37:00,
2013-11-08 10:40:00,46.2,43.1,30.15,SW,226,0.0,7.0,89,0.00,,---,0.00,VWS V14.00,2013-11-08 16:40:00,
2013-11-08 10:41:00,46.2,43.1,30.15,SW,226,0.0,7.0,89,0.00,,---,0.00,VWS V14.00,2013-11-08 16:41:00,
2013-11-08 10:42:00,46.2,43.1,30.15,SW,226,0.0,7.0,89,0.00,,---,0.00,VWS V14.00,2013-11-08 16:42:00,
2013-11-08 10:45:00,46.2,43.1,30.15,SW,226,0.0,7.0,89,0.00,,---,0.00,VWS V14.00,2013-11-08 16:45:00,
2013-11-08 10:46:00,46.2,43.1,30.15,SW,226,0.0,7.0,89,0.00,,---,0.00,VWS V14.00,2013-11-08 16:46:00,
2013-11-08 10:47:00,46.4,43.3,30.15,SW,226,0.0,7.0,89,0.00,,---,0.00,VWS V14.00,2013-11-08 16:47:00,
2013-11-08 10:48:00,46.4,43.3,30.15,SW,226,0.0,7.0,89,0.00,,---,0.00,VWS V14.00,2013-11-08 16:48:00,
2013-11-08 10:50:00,46.4,43.3,30.15,SW,226,0.0,7.0,89,0.00,,---,0.00,VWS V14.00,2013-11-08 16:50:00,
2013-11-08 10:51:00,46.4,43.3,30.15,SW,226,0.0,7.0,89,0.00,,---,0.00,VWS V14.00,2013-11-08 16:51:00,
2013-11-08 10:52:00,46.4,43.3,30.15,SW,226,0.0,7.0,89,0.00,,---,0.00,VWS V14.00,2013-11-08 16:52:00,
2013-11-08 10:53:00,46.4,43.3,30.15,SW,226,0.0,7.0,89,0.00,,---,0.00,VWS V14.00,2013-11-08 16:53:00,
2013-11-08 10:56:00,46.5,43.4,30.15,SW,227,0.0,7.0,89,0.00,,---,0.00,VWS V14.00,2013-11-08 16:56:00,
2013-11-08 10:57:00,46.5,43.4,30.15,SW,227,0.0,7.0,89,0.00,,---,0.00,VWS V14.00,2013-11-08 16:57:00,
2013-11-08 10:58:00,46.5,43.4,30.15,SW,227,0.0,7.0,89,0.00,,---,0.00,VWS V14.00,2013-11-08 16:58:00,
2013-11-08 11:01:00,46.5,43.4,30.14,SW,227,0.0,7.0,89,0.00,,---,0.00,VWS V14.00,2013-11-08 17:01:00,
2013-11-08 11:02:00,46.5,43.4,30.14,SW,227,0.0,0.0,89,0.00,,---,0.00,VWS V14.00,2013-11-08 17:02:00,
2013-11-08 11:03:00,46.5,43.4,30.14,SW,227,0.0,0.0,89,0.00,,---,0.00,VWS V14.00,2013-11-08 17:03:00,
2013-11-08 11:04:00,46.5,43.4,30.14,SW,227,0.0,0.0,89,0.00,,---,0.00,VWS V14.00,2013-11-08 17:04:00,
2013-11-08 11:06:00,46.8,43.7,30.14,SW,227,0.0,0.0,89,0.00,,---,0.00,VWS V14.00,2013-11-08 17:06:00,
2013-11-08 11:07:00,46.8,43.7,30.14,SW,227,0.0,0.0,89,0.00,,---,0.00,VWS V14.00,2013-11-08 17:07:00,
2013-11-08 11:08:00,46.8,43.7,30.14,SW,227,0.0,0.0,89,0.00,,---,0.00,VWS V14.00,2013-11-08 17:08:00,
2013-11-08 11:09:00,46.8,43.7,30.14,SW,227,0.0,0.0,89,0.00,,---,0.00,VWS V14.00,2013-11-08 17:09:00,
2013-11-08 11:11:00,46.8,43.7,30.14,SW,226,0.0,0.0,89,0.00,,---,0.00,VWS V14.00,2013-11-08 17:11:00,
2013-11-08 11:12:00,46.8,43.7,30.14,SW,226,0.0,0.0,89,0.00,,---,0.00,VWS V14.00,2013-11-08 17:12:00,
2013-11-08 11:13:00,46.8,43.7,30.14,SW,226,0.0,0.0,89,0.00,,---,0.00,VWS V14.00,2013-11-08 17:13:00,
2013-11-08 11:14:00,46.8,43.7,30.14,SW,226,0.0,0.0,89,0.00,,---,0.00,VWS V14.00,2013-11-08 17:14:00,
2013-11-08 11:15:00,46.7,43.6,30.14,SW,226,0.0,0.0,89,0.00,,---,0.00,VWS V14.00,2013-11-08 17:15:00,
2013-11-08 11:16:00,46.7,43.3,30.14,SW,226,0.0,0.0,88,0.00,,---,0.00,VWS V14.00,2013-11-08 17:16:00,
2013-11-08 11:18:00,46.7,43.3,30.14,SW,226,0.0,0.0,88,0.00,,---,0.00,VWS V14.00,2013-11-08 17:18:00,
2013-11-08 11:19:00,46.7,43.3,30.14,SW,226,0.0,0.0,88,0.00,,---,0.00,VWS V14.00,2013-11-08 17:19:00,
2013-11-08 11:20:00,46.8,43.4,30.14,SW,226,0.0,0.0,88,0.00,,---,0.00,VWS V14.00,2013-11-08 17:20:00,
2013-11-08 11:21:00,46.8,43.4,30.14,SW,226,0.0,0.0,88,0.00,,---,0.00,VWS V14.00,2013-11-08 17:21:00,
2013-11-08 11:23:00,47.0,43.6,30.14,SW,226,0.0,0.0,88,0.00,,---,0.00,VWS V14.00,2013-11-08 17:23:00,
2013-11-08 11:24:00,47.0,43.6,30.14,SW,232,0.0,0.0,88,0.00,,---,0.00,VWS V14.00,2013-11-08 17:24:00,
2013-11-08 11:25:00,47.0,43.3,30.14,SW,234,0.0,0.0,87,0.00,,---,0.00,VWS V14.00,2013-11-08 17:25:00,
2013-11-08 11:26:00,46.8,43.1,30.14,WSW,258,7.0,7.0,87,0.00,,---,0.00,VWS V14.00,2013-11-08 17:26:00,
2013-11-08 11:28:00,46.8,42.8,30.14,West,265,2.0,11.0,86,0.00,,---,0.00,VWS V14.00,2013-11-08 17:28:00,
2013-11-08 11:29:00,46.8,42.8,30.14,WSW,244,4.0,11.0,86,0.00,,---,0.00,VWS V14.00,2013-11-08 17:29:00,
2013-11-08 11:30:00,46.7,42.7,30.14,WSW,256,2.0,11.0,86,0.00,,---,0.00,VWS V14.00,2013-11-08 17:30:00,
2013-11-08 11:31:00,46.8,42.8,30.14,WSW,237,7.0,7.0,86,0.00,,---,0.00,VWS V14.00,2013-11-08 17:31:00,
2013-11-08 11:33:00,46.8,42.8,30.14,WSW,237,7.0,7.0,86,0.00,,---,0.00,VWS V14.00,2013-11-08 17:33:00,
2013-11-08 11:34:00,46.5,42.5,30.14,West,270,6.0,7.0,86,0.00,,---,0.00,VWS V14.00,2013-11-08 17:34:00,
2013-11-08 11:35:00,46.5,42.5,30.14,West,270,6.0,7.0,86,0.00,,---,0.00,VWS V14.00,2013-11-08 17:35:00,
2013-11-08 11:37:00,46.4,42.1,30.14,SSW,208,6.0,10.0,85,0.00,,---,0.00,VWS V14.00,2013-11-08 17:37:00,
2013-11-08 11:38:00,46.2,42.0,30.14,SSW,212,3.0,10.0,85,0.00,,---,0.00,VWS V14.00,2013-11-08 17:38:00,
2013-11-08 11:39:00,46.4,42.1,30.14,WSW,248,5.0,10.0,85,0.00,,---,0.00,VWS V14.00,2013-11-08 17:39:00,
2013-11-08 11:40:00,46.2,42.0,30.14,WSW,256,1.0,10.0,85,0.00,,---,0.00,VWS V14.00,2013-11-08 17:40:00,
2013-11-08 11:42:00,46.5,42.5,30.14,WSW,253,2.0,10.0,86,0.00,,---,0.00,VWS V14.00,2013-11-08 17:42:00,
2013-11-08 11:43:00,46.2,42.2,30.14,West,263,5.0,10.0,86,0.00,,---,0.00,VWS V14.00,2013-11-08 17:43:00,
2013-11-08 11:44:00,46.4,41.8,30.14,SW,224,5.0,11.0,84,0.00,,---,0.00,VWS V14.00,2013-11-08 17:44:00,
2013-11-08 11:45:00,46.2,41.6,30.14,SW,234,6.0,11.0,84,0.00,,---,0.00,VWS V14.00,2013-11-08 17:45:00,
2013-11-08 11:47:00,46.2,42.0,30.14,WSW,244,2.0,11.0,85,0.00,,---,0.00,VWS V14.00,2013-11-08 17:47:00,
2013-11-08 11:48:00,46.2,42.0,30.14,WSW,243,0.0,11.0,85,0.00,,---,0.00,VWS V14.00,2013-11-08 17:48:00,
2013-11-08 11:49:00,46.2,42.0,30.14,WSW,244,0.0,11.0,85,0.00,,---,0.00,VWS V14.00,2013-11-08 17:49:00,
2013-11-08 11:50:00,46.4,42.1,30.14,SW,217,2.0,11.0,85,0.00,,---,0.00,VWS V14.00,2013-11-08 17:50:00,
2013-11-08 11:52:00,46.4,42.1,30.14,SSW,213,2.0,11.0,85,0.00,,---,0.00,VWS V14.00,2013-11-08 17:52:00,
2013-11-08 11:53:00,46.4,42.1,30.14,SSW,213,0.0,11.0,85,0.00,,---,0.00,VWS V14.00,2013-11-08 17:53:00,
2013-11-08 11:54:00,46.5,42.2,30.14,SSW,213,0.0,11.0,85,0.00,,---,0.00,VWS V14.00,2013-11-08 17:54:00,
2013-11-08 11:55:00,46.5,42.2,30.14,SW,215,0.0,11.0,85,0.00,,---,0.00,VWS V14.00,2013-11-08 17:55:00,
2013-11-08 11:57:00,46.7,42.4,30.14,WSW,243,0.0,11.0,85,0.00,,---,0.00,VWS V14.00,2013-11-08 17:57:00,
2013-11-08 11:58:00,46.7,42.4,30.14,North,8,0.0,11.0,85,0.00,,---,0.00,VWS V14.00,2013-11-08 17:58:00,
2013-11-08 12:00:00,46.7,42.1,30.14,West,272,2.0,11.0,84,0.00,,---,0.00,VWS V14.00,2013-11-08 18:00:00,
2013-11-08 12:01:00,46.7,42.1,30.13,WSW,253,2.0,2.0,84,0.00,,---,0.00,VWS V14.00,2013-11-08 18:01:00,
2013-11-08 12:02:00,46.7,42.1,30.13,WSW,253,2.0,4.0,84,0.00,,---,0.00,VWS V14.00,2013-11-08 18:02:00,
2013-11-08 12:03:00,46.7,42.1,30.13,WSW,253,0.0,4.0,84,0.00,,---,0.00,VWS V14.00,2013-11-08 18:03:00,
2013-11-08 12:05:00,46.8,42.2,30.13,West,268,7.0,7.0,84,0.00,,---,0.00,VWS V14.00,2013-11-08 18:05:00,
2013-11-08 12:06:00,46.8,41.6,30.13,WSW,254,5.0,7.0,82,0.00,,---,0.00,VWS V14.00,2013-11-08 18:06:00,
2013-11-08 12:08:00,46.8,41.9,30.13,SW,220,6.0,7.0,83,0.00,,---,0.00,VWS V14.00,2013-11-08 18:08:00,
2013-11-08 12:09:00,47.0,42.1,30.13,WSW,258,0.0,7.0,83,0.00,,---,0.00,VWS V14.00,2013-11-08 18:09:00,
2013-11-08 12:10:00,47.1,42.5,30.13,WNW,287,0.0,7.0,84,0.00,,---,0.00,VWS V14.00,2013-11-08 18:10:00,
2013-11-08 12:11:00,47.1,42.5,30.13,West,277,0.0,7.0,84,0.00,,---,0.00,VWS V14.00,2013-11-08 18:11:00,
2013-11-08 12:13:00,47.3,42.4,30.13,West,278,0.0,7.0,83,0.00,,---,0.00,VWS V14.00,2013-11-08 18:13:00,
2013-11-08 12:14:00,47.1,42.2,30.13,West,278,6.0,7.0,83,0.00,,---,0.00,VWS V14.00,2013-11-08 18:14:00,
2013-11-08 12:15:00,47.3,42.1,30.11,West,274,4.0,7.0,82,0.00,,---,0.00,VWS V14.00,2013-11-08 18:15:00,
2013-11-08 12:16:00,47.3,42.1,30.11,West,263,5.0,7.0,82,0.00,,---,0.00,VWS V14.00,2013-11-08 18:16:00,
2013-11-08 12:18:00,47.1,41.9,30.11,SW,229,4.0,7.0,82,0.00,,---,0.00,VWS V14.00,2013-11-08 18:18:00,
2013-11-08 12:19:00,47.1,41.9,30.11,South,191,5.0,7.0,82,0.00,,---,0.00,VWS V14.00,2013-11-08 18:19:00,
2013-11-08 12:21:00,47.1,41.9,30.11,West,261,1.0,8.0,82,0.00,,---,0.00,VWS V14.00,2013-11-08 18:21:00,
2013-11-08 12:22:00,47.1,41.9,30.11,WSW,237,3.0,8.0,82,0.00,,---,0.00,VWS V14.00,2013-11-08 18:22:00,
2013-11-08 12:23:00,47.1,41.9,30.11,WSW,258,6.0,8.0,82,0.00,,---,0.00,VWS V14.00,2013-11-08 18:23:00,
2013-11-08 12:24:00,47.1,41.9,30.11,SSW,213,6.0,8.0,82,0.00,,---,0.00,VWS V14.00,2013-11-08 18:24:00,
2013-11-08 12:26:00,47.0,41.8,30.11,WSW,257,2.0,8.0,82,0.00,,---,0.00,VWS V14.00,2013-11-08 18:26:00,
2013-11-08 12:27:00,47.1,41.9,30.11,WSW,254,0.0,8.0,82,0.00,,---,0.00,VWS V14.00,2013-11-08 18:27:00,
2013-11-08 12:28:00,47.1,42.2,30.11,WSW,254,0.0,8.0,83,0.00,,---,0.00,VWS V14.00,2013-11-08 18:28:00,
2013-11-08 12:29:00,47.1,42.2,30.11,SSW,213,0.0,8.0,83,0.00,,---,0.00,VWS V14.00,2013-11-08 18:29:00,
2013-11-08 12:31:00,47.1,42.2,30.10,SW,227,0.0,8.0,83,0.00,,---,0.00,VWS V14.00,2013-11-08 18:31:00,
2013-11-08 12:32:00,47.1,41.9,30.10,WSW,251,0.0,0.0,82,0.00,,---,0.00,VWS V14.00,2013-11-08 18:32:00,
2013-11-08 12:33:00,47.0,41.8,30.10,West,278,5.0,7.0,82,0.00,,---,0.00,VWS V14.00,2013-11-08 18:33:00,
2013-11-08 12:34:00,47.1,41.9,30.10,West,278,3.0,7.0,82,0.00,,---,0.00,VWS V14.00,2013-11-08 18:34:00,
2013-11-08 12:37:00,47.3,42.1,30.10,SW,220,3.0,7.0,82,0.00,,---,0.00,VWS V14.00,2013-11-08 18:37:00,
2013-11-08 12:38:00,47.3,42.1,30.10,WSW,240,1.0,7.0,82,0.00,,---,0.00,VWS V14.00,2013-11-08 18:38:00,
2013-11-08 12:39:00,47.3,42.1,30.10,West,263,2.0,7.0,82,0.00,,---,0.00,VWS V14.00,2013-11-08 18:39:00,
2013-11-08 12:42:00,47.3,41.5,30.10,SSW,203,0.0,7.0,80,0.00,,---,0.00,VWS V14.00,2013-11-08 18:42:00,
2013-11-08 12:43:00,47.1,41.3,30.10,SW,220,3.0,7.0,80,0.00,,---,0.00,VWS V14.00,2013-11-08 18:43:00,
2013-11-08 12:44:00,47.3,42.4,30.10,SW,227,5.0,7.0,83,0.00,,---,0.00,VWS V14.00,2013-11-08 18:44:00,
2013-11-08 12:47:00,47.1,41.6,30.10,West,268,6.0,8.0,81,0.00,,---,0.00,VWS V14.00,2013-11-08 18:47:00,
2013-11-08 12:48:00,47.3,41.8,30.10,West,278,0.0,8.0,81,0.00,,---,0.00,VWS V14.00,2013-11-08 18:48:00,
2013-11-08 12:49:00,47.3,42.1,30.10,West,278,0.0,8.0,82,0.00,,---,0.00,VWS V14.00,2013-11-08 18:49:00,
2013-11-08 12:52:00,47.4,41.5,30.10,WSW,237,0.0,8.0,80,0.00,,---,0.00,VWS V14.00,2013-11-08 18:52:00,
2013-11-08 12:53:00,47.6,41.8,30.10,SW,236,0.0,8.0,80,0.00,,---,0.00,VWS V14.00,2013-11-08 18:53:00,
2013-11-08 12:54:00,47.6,41.8,30.10,SW,236,1.0,8.0,80,0.00,,---,0.00,VWS V14.00,2013-11-08 18:54:00,
2013-11-08 12:55:00,47.7,42.2,30.10,SW,236,0.0,8.0,81,0.00,,---,0.00,VWS V14.00,2013-11-08 18:55:00,
2013-11-08 12:57:00,47.9,42.4,30.10,SW,229,0.0,8.0,81,0.00,,---,0.00,VWS V14.00,2013-11-08 18:57:00,
2013-11-08 12:59:00,48.3,42.4,30.10,SW,226,5.0,8.0,80,0.00,,---,0.00,VWS V14.00,2013-11-08 18:59:00,
2013-11-08 13:00:00,48.3,42.4,30.10,SW,227,4.0,8.0,80,0.00,,---,0.00,VWS V14.00,2013-11-08 19:00:00,
2013-11-08 13:02:00,48.5,42.6,30.08,SW,233,2.0,6.0,80,0.00,,---,0.00,VWS V14.00,2013-11-08 19:02:00,
2013-11-08 13:04:00,48.5,42.6,30.08,WSW,237,3.0,6.0,80,0.00,,---,0.00,VWS V14.00,2013-11-08 19:04:00,
2013-11-08 13:05:00,48.6,42.7,30.08,SSW,199,0.0,6.0,80,0.00,,---,0.00,VWS V14.00,2013-11-08 19:05:00,
2013-11-08 13:07:00,48.8,42.9,30.08,West,281,4.0,6.0,80,0.00,,---,0.00,VWS V14.00,2013-11-08 19:07:00,
2013-11-08 13:09:00,48.8,42.6,30.08,WNW,301,0.0,6.0,79,0.00,,---,0.00,VWS V14.00,2013-11-08 19:09:00,
2013-11-08 13:10:00,48.6,41.7,30.08,SSW,203,2.0,7.0,77,0.00,,---,0.00,VWS V14.00,2013-11-08 19:10:00,
2013-11-08 13:12:00,48.3,42.4,30.08,West,265,5.0,8.0,80,0.00,,---,0.00,VWS V14.00,2013-11-08 19:12:00,
2013-11-08 13:14:00,48.2,42.3,30.08,WSW,258,2.0,8.0,80,0.00,,---,0.00,VWS V14.00,2013-11-08 19:14:00,
2013-11-08 13:15:00,48.2,42.3,30.07,SW,222,4.0,8.0,80,0.00,,---,0.00,VWS V14.00,2013-11-08 19:15:00,
2013-11-08 13:18:00,48.0,42.1,30.07,SW,227,0.0,8.0,80,0.00,,---,0.00,VWS V14.00,2013-11-08 19:18:00,
2013-11-08 13:19:00,47.9,42.0,30.07,West,274,5.0,9.0,80,0.00,,---,0.00,VWS V14.00,2013-11-08 19:19:00,
2013-11-08 13:20:00,48.0,42.1,30.07,West,271,0.0,9.0,80,0.00,,---,0.00,VWS V14.00,2013-11-08 19:20:00,
2013-11-08 13:23:00,48.0,42.5,30.07,WNW,285,5.0,9.0,81,0.00,,---,0.00,VWS V14.00,2013-11-08 19:23:00,
2013-11-08 13:24:00,47.9,42.0,30.07,West,277,8.0,9.0,80,0.00,,---,0.00,VWS V14.00,2013-11-08 19:24:00,
2013-11-08 13:25:00,47.9,42.4,30.07,SW,219,8.0,12.0,81,0.00,,---,0.00,VWS V14.00,2013-11-08 19:25:00,
2013-11-08 13:26:00,47.9,42.0,30.07,SW,217,8.0,12.0,80,0.00,,---,0.00,VWS V14.00,2013-11-08 19:26:00,
2013-11-08 13:28:00,47.7,41.5,30.07,West,272,2.0,12.0,79,0.00,,---,0.00,VWS V14.00,2013-11-08 19:28:00,
2013-11-08 13:30:00,47.7,41.5,30.07,SW,232,3.0,12.0,79,0.00,,---,0.00,VWS V14.00,2013-11-08 19:30:00,
2013-11-08 13:31:00,47.6,41.8,30.06,SW,220,5.0,12.0,80,0.00,,---,0.00,VWS V14.00,2013-11-08 19:31:00,
2013-11-08 13:34:00,47.4,41.5,30.06,SW,219,2.0,10.0,80,0.00,,---,0.00,VWS V14.00,2013-11-08 19:34:00,
2013-11-08 13:35:00,47.3,41.5,30.06,SW,222,2.0,10.0,80,0.00,,---,0.00,VWS V14.00,2013-11-08 19:35:00,
2013-11-08 13:36:00,47.4,41.9,30.06,SW,226,0.0,10.0,81,0.00,,---,0.00,VWS V14.00,2013-11-08 19:36:00,
2013-11-08 13:39:00,47.3,42.4,30.06,SW,226,0.0,10.0,83,0.00,,---,0.00,VWS V14.00,2013-11-08 19:39:00,
2013-11-08 13:40:00,47.3,42.4,30.06,SSW,210,6.0,10.0,83,0.00,,---,0.00,VWS V14.00,2013-11-08 19:40:00,
2013-11-08 13:41:00,47.3,42.4,30.06,SSW,208,0.0,10.0,83,0.00,,---,0.00,VWS V14.00,2013-11-08 19:41:00,
2013-11-08 13:44:00,47.4,41.9,30.06,SSW,209,0.0,10.0,81,0.00,,---,0.00,VWS V14.00,2013-11-08 19:44:00,
2013-11-08 13:45:00,47.4,41.9,30.06,SSW,209,0.0,10.0,81,0.00,,---,0.00,VWS V14.00,2013-11-08 19:45:00,
2013-11-08 13:46:00,47.4,41.9,30.06,SSW,212,0.0,10.0,81,0.00,,---,0.00,VWS V14.00,2013-11-08 19:46:00,
2013-11-08 13:50:00,47.4,41.9,30.06,SW,233,1.0,10.0,81,0.00,,---,0.00,VWS V14.00,2013-11-08 19:50:00,
2013-11-08 13:51:00,47.6,42.4,30.06,SW,233,7.0,10.0,82,0.00,,---,0.00,VWS V14.00,2013-11-08 19:51:00,
2013-11-08 13:55:00,47.7,42.2,30.06,SSW,209,0.0,10.0,81,0.00,,---,0.00,VWS V14.00,2013-11-08 19:55:00,
2013-11-08 13:56:00,47.7,42.2,30.06,SSW,193,2.0,10.0,81,0.00,,---,0.00,VWS V14.00,2013-11-08 19:56:00,
2013-11-08 14:00:00,47.7,42.2,30.06,WSW,253,1.0,10.0,81,0.00,,---,0.00,VWS V14.00,2013-11-08 20:00:00,
2013-11-08 14:01:00,47.9,42.0,30.04,SW,216,4.0,4.0,80,0.00,,---,0.00,VWS V14.00,2013-11-08 20:01:00,
2013-11-08 14:05:00,47.9,41.7,30.04,SW,220,0.0,8.0,79,0.00,,---,0.00,VWS V14.00,2013-11-08 20:05:00,
2013-11-08 14:06:00,47.9,41.7,30.04,WSW,239,6.0,10.0,79,0.00,,---,0.00,VWS V14.00,2013-11-08 20:06:00,
2013-11-08 14:07:00,47.9,42.0,30.04,SW,215,1.0,10.0,80,0.00,,---,0.00,VWS V14.00,2013-11-08 20:07:00,
2013-11-08 14:10:00,48.0,42.1,30.04,SSW,213,0.0,10.0,80,0.00,,---,0.00,VWS V14.00,2013-11-08 20:10:00,
2013-11-08 14:11:00,48.2,42.3,30.04,SSW,213,0.0,10.0,80,0.00,,---,0.00,VWS V14.00,2013-11-08 20:11:00,
2013-11-08 14:12:00,48.2,42.3,30.04,West,272,0.0,10.0,80,0.00,,---,0.00,VWS V14.00,2013-11-08 20:12:00,
2013-11-08 14:15:00,48.5,42.3,30.02,West,261,0.0,10.0,79,0.00,,---,0.00,VWS V14.00,2013-11-08 20:15:00,
2013-11-08 14:16:00,48.5,42.3,30.02,West,261,0.0,10.0,79,0.00,,---,0.00,VWS V14.00,2013-11-08 20:16:00,
2013-11-08 14:17:00,48.6,42.1,30.02,West,263,0.0,10.0,78,0.00,,---,0.00,VWS V14.00,2013-11-08 20:17:00,
2013-11-08 14:21:00,49.2,42.6,30.02,West,265,0.0,10.0,78,0.00,,---,0.00,VWS V14.00,2013-11-08 20:21:00,
2013-11-08 14:22:00,49.2,42.6,30.02,SW,219,0.0,10.0,78,0.00,,---,0.00,VWS V14.00,2013-11-08 20:22:00,
2013-11-08 14:26:00,49.8,42.9,30.02,West,263,4.0,10.0,77,0.00,,---,0.00,VWS V14.00,2013-11-08 20:26:00,
2013-11-08 14:27:00,49.8,42.5,30.02,West,280,3.0,10.0,76,0.00,,---,0.00,VWS V14.00,2013-11-08 20:27:00,
2013-11-08 14:31:00,49.8,42.9,30.02,West,268,2.0,10.0,77,0.00,,---,0.00,VWS V14.00,2013-11-08 20:31:00,
2013-11-08 14:32:00,49.8,42.9,30.02,West,263,6.0,6.0,77,0.00,,---,0.00,VWS V14.00,2013-11-08 20:32:00,
2013-11-08 14:33:00,49.6,42.4,30.02,West,278,4.0,7.0,76,0.00,,---,0.00,VWS V14.00,2013-11-08 20:33:00,
2013-11-08 14:36:00,49.6,42.4,30.02,West,270,3.0,9.0,76,0.00,,---,0.00,VWS V14.00,2013-11-08 20:36:00,
2013-11-08 14:37:00,49.6,42.4,30.02,West,265,8.0,10.0,76,0.00,,---,0.00,VWS V14.00,2013-11-08 20:37:00,
2013-11-08 14:38:00,49.5,42.9,30.02,West,268,5.0,10.0,78,0.00,,---,0.00,VWS V14.00,2013-11-08 20:38:00,
2013-11-08 14:41:00,49.8,42.5,30.02,WSW,258,2.0,10.0,76,0.00,,---,0.00,VWS V14.00,2013-11-08 20:41:00,
2013-11-08 14:42:00,49.8,42.5,30.02,West,260,6.0,10.0,76,0.00,,---,0.00,VWS V14.00,2013-11-08 20:42:00,
2013-11-08 14:43:00,49.8,42.9,30.02,WNW,282,3.0,10.0,77,0.00,,---,0.00,VWS V14.00,2013-11-08 20:43:00,
2013-11-08 14:47:00,50.2,43.3,30.01,WNW,284,10.0,10.0,77,0.00,,---,0.00,VWS V14.00,2013-11-08 20:47:00,
2013-11-08 14:48:00,50.2,43.3,30.01,WNW,288,4.0,10.0,77,0.00,,---,0.00,VWS V14.00,2013-11-08 20:48:00,
2013-11-08 14:52:00,50.2,42.6,30.01,WNW,285,4.0,10.0,75,0.00,,---,0.00,VWS V14.00,2013-11-08 20:52:00,
2013-11-08 14:53:00,50.4,43.5,30.01,West,272,7.0,10.0,77,0.00,,---,0.00,VWS V14.00,2013-11-08 20:53:00,
2013-11-08 14:57:00,50.4,42.8,30.01,NW,308,5.0,10.0,75,0.00,,---,0.00,VWS V14.00,2013-11-08 20:57:00,
2013-11-08 14:58:00,50.5,42.9,30.01,West,267,7.0,10.0,75,0.00,,---,0.00,VWS V14.00,2013-11-08 20:58:00,
2013-11-08 14:59:00,50.5,42.9,30.01,West,268,7.0,10.0,75,0.00,,---,0.00,VWS V14.00,2013-11-08 20:59:00,
2013-11-08 15:02:00,50.5,43.2,30.01,West,272,5.0,6.0,76,0.00,,---,0.00,VWS V14.00,2013-11-08 21:02:00,
2013-11-08 15:03:00,50.5,43.2,30.01,West,271,3.0,8.0,76,0.00,,---,0.00,VWS V14.00,2013-11-08 21:03:00,
2013-11-08 15:04:00,50.5,43.2,30.01,WNW,285,9.0,11.0,76,0.00,,---,0.00,VWS V14.00,2013-11-08 21:04:00,
2013-11-08 15:07:00,50.7,43.4,30.01,SW,234,6.0,11.0,76,0.00,,---,0.00,VWS V14.00,2013-11-08 21:07:00,
2013-11-08 15:08:00,50.5,43.2,30.01,West,261,7.0,11.0,76,0.00,,---,0.00,VWS V14.00,2013-11-08 21:08:00,
2013-11-08 15:09:00,50.5,43.6,30.01,West,281,6.0,11.0,77,0.00,,---,0.00,VWS V14.00,2013-11-08 21:09:00,
2013-11-08 15:12:00,50.7,43.1,30.01,WSW,257,6.0,11.0,75,0.00,,---,0.00,VWS V14.00,2013-11-08 21:12:00,
2013-11-08 15:13:00,50.7,43.1,30.01,SW,233,3.0,11.0,75,0.00,,---,0.00,VWS V14.00,2013-11-08 21:13:00,
2013-11-08 15:14:00,50.7,43.4,30.01,West,278,4.0,11.0,76,0.00,,---,0.00,VWS V14.00,2013-11-08 21:14:00,
2013-11-08 15:18:00,50.7,42.7,30.00,SW,236,3.0,11.0,74,0.00,,---,0.00,VWS V14.00,2013-11-08 21:18:00,
2013-11-08 15:19:00,50.8,43.2,30.00,WSW,257,6.0,11.0,75,0.00,,---,0.00,VWS V14.00,2013-11-08 21:19:00,
2013-11-08 15:20:00,50.7,43.4,30.00,SW,234,2.0,11.0,76,0.00,,---,0.00,VWS V14.00,2013-11-08 21:20:00,
2013-11-08 15:23:00,51.0,43.4,30.00,WSW,243,5.0,11.0,75,0.00,,---,0.00,VWS V14.00,2013-11-08 21:23:00,
2013-11-08 15:25:00,51.3,43.7,30.00,West,261,7.0,11.0,75,0.00,,---,0.00,VWS V14.00,2013-11-08 21:25:00,
2013-11-08 15:28:00,51.9,43.2,30.00,West,272,5.0,12.0,72,0.00,,---,0.00,VWS V14.00,2013-11-08 21:28:00,
2013-11-08 15:30:00,51.9,43.2,30.00,West,275,6.0,12.0,72,0.00,,---,0.00,VWS V14.00,2013-11-08 21:30:00,
2013-11-08 15:31:00,52.2,43.5,29.99,WSW,244,5.0,12.0,72,0.00,,---,0.00,VWS V14.00,2013-11-08 21:31:00,
2013-11-08 15:33:00,52.8,43.7,29.99,SSW,213,12.0,12.0,71,0.00,,---,0.00,VWS V14.00,2013-11-08 21:33:00,
2013-11-08 15:34:00,52.9,44.1,29.99,SW,233,6.0,12.0,72,0.00,,---,0.00,VWS V14.00,2013-11-08 21:34:00,
2013-11-08 15:35:00,53.1,44.3,29.99,SW,230,10.0,12.0,72,0.00,,---,0.00,VWS V14.00,2013-11-08 21:35:00,
2013-11-08 15:36:00,53.1,43.6,29.99,WSW,258,7.0,12.0,70,0.00,,---,0.00,VWS V14.00,2013-11-08 21:36:00,
2013-11-08 15:38:00,53.2,44.0,29.99,WSW,243,5.0,12.0,71,0.00,,---,0.00,VWS V14.00,2013-11-08 21:38:00,
2013-11-08 15:39:00,53.3,44.2,29.99,SSW,202,3.0,12.0,71,0.00,,---,0.00,VWS V14.00,2013-11-08 21:39:00,
2013-11-08 15:40:00,52.9,43.4,29.99,SW,232,8.0,12.0,70,0.00,,---,0.00,VWS V14.00,2013-11-08 21:40:00,
2013-11-08 15:41:00,53.1,43.6,29.99,SW,219,7.0,12.0,70,0.00,,---,0.00,VWS V14.00,2013-11-08 21:41:00,
2013-11-08 15:43:00,52.6,43.8,29.99,SW,223,12.0,12.0,72,0.00,,---,0.00,VWS V14.00,2013-11-08 21:43:00,
2013-11-08 15:44:00,52.3,43.2,29.99,SW,229,6.0,12.0,71,0.00,,---,0.00,VWS V14.00,2013-11-08 21:44:00,
2013-11-08 15:45:00,52.0,43.3,29.99,SSW,200,5.0,12.0,72,0.00,,---,0.00,VWS V14.00,2013-11-08 21:45:00,
2013-11-08 15:46:00,52.0,43.3,29.99,SW,229,7.0,12.0,72,0.00,,---,0.00,VWS V14.00,2013-11-08 21:46:00,
2013-11-08 15:48:00,51.9,43.5,29.99,SW,217,5.0,12.0,73,0.00,,---,0.00,VWS V14.00,2013-11-08 21:48:00,
2013-11-08 15:49:00,51.7,43.0,29.99,South,191,5.0,12.0,72,0.00,,---,0.00,VWS V14.00,2013-11-08 21:49:00,
2013-11-08 15:50:00,51.9,43.2,29.99,SW,222,5.0,12.0,72,0.00,,---,0.00,VWS V14.00,2013-11-08 21:50:00,
2013-11-08 15:51:00,51.9,43.2,29.99,SW,232,3.0,12.0,72,0.00,,---,0.00,VWS V14.00,2013-11-08 21:51:00,
2013-11-08 15:53:00,52.2,43.8,29.99,SSW,206,5.0,12.0,73,0.00,,---,0.00,VWS V14.00,2013-11-08 21:53:00,
2013-11-08 15:54:00,52.2,43.8,29.99,SSW,203,7.0,12.0,73,0.00,,---,0.00,VWS V14.00,2013-11-08 21:54:00,
2013-11-08 15:55:00,52.3,44.3,29.99,WSW,251,5.0,12.0,74,0.00,,---,0.00,VWS V14.00,2013-11-08 21:55:00,
2013-11-08 15:56:00,52.3,43.9,29.99,SW,233,0.0,12.0,73,0.00,,---,0.00,VWS V14.00,2013-11-08 21:56:00,
2013-11-08 15:58:00,52.3,43.9,29.99,SW,226,4.0,12.0,73,0.00,,---,0.00,VWS V14.00,2013-11-08 21:58:00,
2013-11-08 15:59:00,52.3,44.3,29.99,WSW,240,2.0,12.0,74,0.00,,---,0.00,VWS V14.00,2013-11-08 21:59:00,
2013-11-08 16:00:00,52.3,44.3,29.99,SW,223,5.0,12.0,74,0.00,,---,0.00,VWS V14.00,2013-11-08 22:00:00,
2013-11-08 16:01:00,52.3,43.9,29.98,West,263,5.0,5.0,73,0.00,,---,0.00,VWS V14.00,2013-11-08 22:01:00,
2013-11-08 16:03:00,52.3,43.5,29.98,WSW,256,5.0,6.0,72,0.00,,---,0.00,VWS V14.00,2013-11-08 22:03:00,
2013-11-08 16:04:00,52.3,43.5,29.98,SW,224,3.0,7.0,72,0.00,,---,0.00,VWS V14.00,2013-11-08 22:04:00,
2013-11-08 16:05:00,52.2,44.2,29.98,West,272,5.0,7.0,74,0.00,,---,0.00,VWS V14.00,2013-11-08 22:05:00,
2013-11-08 16:06:00,52.2,44.2,29.98,West,272,5.0,7.0,74,0.00,,---,0.00,VWS V14.00,2013-11-08 22:06:00,
2013-11-08 16:07:00,52.3,44.3,29.98,SW,222,5.0,8.0,74,0.00,,---,0.00,VWS V14.00,2013-11-08 22:07:00,
2013-11-08 16:08:00,52.3,44.3,29.98,West,268,2.0,10.0,74,0.00,,---,0.00,VWS V14.00,2013-11-08 22:08:00,
2013-11-08 16:09:00,52.2,44.2,29.98,West,272,5.0,10.0,74,0.00,,---,0.00,VWS V14.00,2013-11-08 22:09:00,
2013-11-08 16:11:00,52.3,44.6,29.98,West,275,1.0,10.0,75,0.00,,---,0.00,VWS V14.00,2013-11-08 22:11:00,
2013-11-08 16:12:00,52.3,44.3,29.98,SW,216,6.0,10.0,74,0.00,,---,0.00,VWS V14.00,2013-11-08 22:12:00,
2013-11-08 16:13:00,52.5,44.5,29.98,SW,219,2.0,10.0,74,0.00,,---,0.00,VWS V14.00,2013-11-08 22:13:00,
2013-11-08 16:14:00,52.5,44.1,29.98,SW,232,6.0,10.0,73,0.00,,---,0.00,VWS V14.00,2013-11-08 22:14:00,
2013-11-08 16:16:00,52.5,44.1,29.97,WSW,247,2.0,10.0,73,0.00,,---,0.00,VWS V14.00,2013-11-08 22:16:00,
2013-11-08 16:17:00,52.6,44.2,29.97,SW,224,4.0,10.0,73,0.00,,---,0.00,VWS V14.00,2013-11-08 22:17:00,
2013-11-08 16:18:00,52.5,44.1,29.97,SW,229,2.0,10.0,73,0.00,,---,0.00,VWS V14.00,2013-11-08 22:18:00,
2013-11-08 16:19:00,52.8,44.4,29.97,SW,229,1.0,10.0,73,0.00,,---,0.00,VWS V14.00,2013-11-08 22:19:00,
2013-11-08 16:21:00,53.1,44.3,29.97,SW,226,4.0,10.0,72,0.00,,---,0.00,VWS V14.00,2013-11-08 22:21:00,
2013-11-08 16:22:00,53.1,44.3,29.97,SW,232,4.0,10.0,72,0.00,,---,0.00,VWS V14.00,2013-11-08 22:22:00,
2013-11-08 16:23:00,53.3,44.5,29.97,SW,227,3.0,10.0,72,0.00,,---,0.00,VWS V14.00,2013-11-08 22:23:00,
2013-11-08 16:24:00,53.3,44.5,29.97,SW,222,6.0,10.0,72,0.00,,---,0.00,VWS V14.00,2013-11-08 22:24:00,
2013-11-08 16:25:00,53.3,44.5,29.97,SW,224,7.0,10.0,72,0.00,,---,0.00,VWS V14.00,2013-11-08 22:25:00,
2013-11-08 16:26:00,53.5,44.7,29.97,SW,227,0.0,10.0,72,0.00,,---,0.00,VWS V14.00,2013-11-08 22:26:00,
2013-11-08 16:27:00,53.6,44.4,29.97,West,270,6.0,10.0,71,0.00,,---,0.00,VWS V14.00,2013-11-08 22:27:00,
2013-11-08 16:28:00,53.5,44.3,29.97,West,265,5.0,10.0,71,0.00,,---,0.00,VWS V14.00,2013-11-08 22:28:00,
2013-11-08 16:29:00,53.5,44.7,29.97,WSW,240,2.0,10.0,72,0.00,,---,0.00,VWS V14.00,2013-11-08 22:29:00,
2013-11-08 16:30:00,53.5,44.7,29.97,WSW,251,5.0,10.0,72,0.00,,---,0.00,VWS V14.00,2013-11-08 22:30:00,
2013-11-08 16:32:00,53.6,44.8,29.96,SW,219,2.0,6.0,72,0.00,,---,0.00,VWS V14.00,2013-11-08 22:32:00,
2013-11-08 16:33:00,53.6,44.8,29.96,SW,230,2.0,7.0,72,0.00,,---,0.00,VWS V14.00,2013-11-08 22:33:00,
2013-11-08 16:34:00,53.6,44.8,29.96,WSW,246,7.0,7.0,72,0.00,,---,0.00,VWS V14.00,2013-11-08 22:34:00,
2013-11-08 16:35:00,53.5,44.7,29.96,West,261,3.0,7.0,72,0.00,,---,0.00,VWS V14.00,2013-11-08 22:35:00,
2013-11-08 16:37:00,53.6,44.8,29.96,West,270,3.0,7.0,72,0.00,,---,0.00,VWS V14.00,2013-11-08 22:37:00,
2013-11-08 16:38:00,53.6,45.2,29.96,West,272,2.0,7.0,73,0.00,,---,0.00,VWS V14.00,2013-11-08 22:38:00,
2013-11-08 16:39:00,53.8,45.4,29.96,SW,226,0.0,7.0,73,0.00,,---,0.00,VWS V14.00,2013-11-08 22:39:00,
2013-11-08 16:40:00,53.8,45.4,29.96,SW,232,5.0,7.0,73,0.00,,---,0.00,VWS V14.00,2013-11-08 22:40:00,
2013-11-08 16:42:00,53.9,44.7,29.96,SSW,212,2.0,7.0,71,0.00,,---,0.00,VWS V14.00,2013-11-08 22:42:00,
2013-11-08 16:43:00,54.1,44.9,29.96,SW,222,9.0,9.0,71,0.00,,---,0.00,VWS V14.00,2013-11-08 22:43:00,
2013-11-08 16:44:00,54.1,44.9,29.96,SW,224,6.0,9.0,71,0.00,,---,0.00,VWS V14.00,2013-11-08 22:44:00,
2013-11-08 16:46:00,54.2,45.0,29.95,SW,223,3.0,9.0,71,0.00,,---,0.00,VWS V14.00,2013-11-08 22:46:00,
2013-11-08 16:47:00,54.2,44.6,29.95,SSW,213,3.0,9.0,70,0.00,,---,0.00,VWS V14.00,2013-11-08 22:47:00,
2013-11-08 16:48:00,54.2,44.6,29.95,SW,220,1.0,9.0,70,0.00,,---,0.00,VWS V14.00,2013-11-08 22:48:00,
2013-11-08 16:49:00,54.2,45.0,29.95,SW,227,2.0,9.0,71,0.00,,---,0.00,VWS V14.00,2013-11-08 22:49:00,
2013-11-08 16:50:00,54.2,45.0,29.95,SW,222,5.0,9.0,71,0.00,,---,0.00,VWS V14.00,2013-11-08 22:50:00,
2013-11-08 16:51:00,54.4,45.2,29.95,SW,236,0.0,9.0,71,0.00,,---,0.00,VWS V14.00,2013-11-08 22:51:00,
2013-11-08 16:52:00,54.4,45.2,29.95,WSW,258,5.0,9.0,71,0.00,,---,0.00,VWS V14.00,2013-11-08 22:52:00,
2013-11-08 16:54:00,54.2,45.0,29.95,WSW,246,1.0,9.0,71,0.00,,---,0.00,VWS V14.00,2013-11-08 22:54:00,
2013-11-08 16:55:00,54.1,44.9,29.95,West,271,2.0,9.0,71,0.00,,---,0.00,VWS V14.00,2013-11-08 22:55:00,
2013-11-08 16:56:00,54.1,44.9,29.95,SW,230,2.0,9.0,71,0.00,,---,0.00,VWS V14.00,2013-11-08 22:56:00,
2013-11-08 16:57:00,54.2,45.0,29.95,SW,232,0.0,9.0,71,0.00,,---,0.00,VWS V14.00,2013-11-08 22:57:00,
2013-11-08 17:00:00,54.2,45.0,29.95,SW,224,3.0,9.0,71,0.00,,---,0.00,VWS V14.00,2013-11-08 23:00:00,
2013-11-08 17:01:00,54.2,45.0,29.95,SW,224,0.0,9.0,71,0.00,,---,0.00,VWS V14.00,2013-11-08 23:01:00,
2013-11-08 17:02:00,54.4,45.2,29.95,SW,224,0.0,0.0,71,0.00,,---,0.00,VWS V14.00,2013-11-08 23:02:00,
2013-11-08 17:05:00,54.4,44.8,29.95,SW,220,5.0,7.0,70,0.00,,---,0.00,VWS V14.00,2013-11-08 23:05:00,
2013-11-08 17:06:00,54.4,44.8,29.95,SW,219,5.0,7.0,70,0.00,,---,0.00,VWS V14.00,2013-11-08 23:06:00,
2013-11-08 17:07:00,54.1,44.9,29.95,SW,226,8.0,8.0,71,0.00,,---,0.00,VWS V14.00,2013-11-08 23:07:00,
2013-11-08 17:10:00,53.9,44.7,29.95,SSW,210,1.0,8.0,71,0.00,,---,0.00,VWS V14.00,2013-11-08 23:10:00,
2013-11-08 17:11:00,53.9,44.7,29.95,SW,224,6.0,8.0,71,0.00,,---,0.00,VWS V14.00,2013-11-08 23:11:00,
2013-11-08 17:12:00,53.8,44.6,29.95,SW,229,4.0,8.0,71,0.00,,---,0.00,VWS V14.00,2013-11-08 23:12:00,
2013-11-08 17:14:00,53.8,45.0,29.95,WSW,251,1.0,9.0,72,0.00,,---,0.00,VWS V14.00,2013-11-08 23:14:00,
2013-11-08 17:15:00,53.8,45.4,29.95,WSW,237,0.0,9.0,73,0.00,,---,0.00,VWS V14.00,2013-11-08 23:15:00,
2013-11-08 17:16:00,53.8,45.4,29.95,SW,233,5.0,9.0,73,0.00,,---,0.00,VWS V14.00,2013-11-08 23:16:00,
2013-11-08 17:17:00,53.8,44.6,29.95,SSW,212,2.0,9.0,71,0.00,,---,0.00,VWS V14.00,2013-11-08 23:17:00,
2013-11-08 17:19:00,53.6,44.8,29.95,WSW,257,5.0,9.0,72,0.00,,---,0.00,VWS V14.00,2013-11-08 23:19:00,
2013-11-08 17:20:00,53.6,44.8,29.95,WSW,254,0.0,9.0,72,0.00,,---,0.00,VWS V14.00,2013-11-08 23:20:00,
2013-11-08 17:21:00,53.6,44.8,29.95,SW,229,0.0,9.0,72,0.00,,---,0.00,VWS V14.00,2013-11-08 23:21:00,
2013-11-08 17:22:00,53.6,44.8,29.95,WSW,239,0.0,9.0,72,0.00,,---,0.00,VWS V14.00,2013-11-08 23:22:00,
2013-11-08 17:23:00,53.6,45.2,29.95,WSW,239,0.0,9.0,73,0.00,,---,0.00,VWS V14.00,2013-11-08 23:23:00,
2013-11-08 17:24:00,53.6,45.2,29.95,West,265,0.0,9.0,73,0.00,,---,0.00,VWS V14.00,2013-11-08 23:24:00,
2013-11-08 17:25:00,53.5,44.7,29.95,SW,232,0.0,9.0,72,0.00,,---,0.00,VWS V14.00,2013-11-08 23:25:00,
2013-11-08 17:26:00,53.5,44.7,29.95,WSW,240,0.0,9.0,72,0.00,,---,0.00,VWS V14.00,2013-11-08 23:26:00,
2013-11-08 17:28:00,53.5,44.7,29.95,West,260,0.0,9.0,72,0.00,,---,0.00,VWS V14.00,2013-11-08 23:28:00,
2013-11-08 17:29:00,53.5,45.1,29.95,WSW,254,0.0,9.0,73,0.00,,---,0.00,VWS V14.00,2013-11-08 23:29:00,
2013-11-08 17:30:00,53.5,45.1,29.96,WSW,253,0.0,9.0,73,0.00,,---,0.00,VWS V14.00,2013-11-08 23:30:00,
2013-11-08 17:31:00,53.3,44.9,29.96,WSW,254,0.0,0.0,73,0.00,,---,0.00,VWS V14.00,2013-11-08 23:31:00,
2013-11-08 17:32:00,53.3,44.9,29.96,WSW,253,0.0,0.0,73,0.00,,---,0.00,VWS V14.00,2013-11-08 23:32:00,
2013-11-08 17:33:00,53.3,44.9,29.96,WSW,254,0.0,0.0,73,0.00,,---,0.00,VWS V14.00,2013-11-08 23:33:00,
2013-11-08 17:34:00,53.3,44.9,29.96,WSW,254,0.0,0.0,73,0.00,,---,0.00,VWS V14.00,2013-11-08 23:34:00,
2013-11-08 17:35:00,53.3,44.9,29.96,WSW,254,0.0,0.0,73,0.00,,---,0.00,VWS V14.00,2013-11-08 23:35:00,
2013-11-08 17:37:00,53.2,44.8,29.96,SW,226,0.0,0.0,73,0.00,,---,0.00,VWS V14.00,2013-11-08 23:37:00,
2013-11-08 17:38:00,53.1,45.0,29.96,WNW,292,0.0,0.0,74,0.00,,---,0.00,VWS V14.00,2013-11-08 23:38:00,
2013-11-08 17:40:00,52.9,44.8,29.96,WNW,282,0.0,0.0,74,0.00,,---,0.00,VWS V14.00,2013-11-08 23:40:00,
2013-11-08 17:41:00,52.8,44.8,29.96,West,278,0.0,0.0,74,0.00,,---,0.00,VWS V14.00,2013-11-08 23:41:00,
2013-11-08 17:42:00,52.8,45.1,29.96,West,277,0.0,0.0,75,0.00,,---,0.00,VWS V14.00,2013-11-08 23:42:00,
2013-11-08 17:43:00,52.5,44.8,29.96,West,274,0.0,0.0,75,0.00,,---,0.00,VWS V14.00,2013-11-08 23:43:00,
2013-11-08 17:45:00,52.2,44.5,29.96,West,274,0.0,0.0,75,0.00,,---,0.00,VWS V14.00,2013-11-08 23:45:00,
2013-11-08 17:47:00,52.0,44.3,29.96,WSW,256,0.0,0.0,75,0.00,,---,0.00,VWS V14.00,2013-11-08 23:47:00,
2013-11-08 17:48:00,51.7,44.4,29.96,SW,226,0.0,0.0,76,0.00,,---,0.00,VWS V14.00,2013-11-08 23:48:00,
2013-11-08 17:50:00,51.6,44.3,29.96,West,277,0.0,0.0,76,0.00,,---,0.00,VWS V14.00,2013-11-08 23:50:00,
2013-11-08 17:52:00,51.3,44.3,29.96,West,265,0.0,0.0,77,0.00,,---,0.00,VWS V14.00,2013-11-08 23:52:00,
2013-11-08 17:53:00,51.3,44.3,29.96,SW,234,0.0,0.0,77,0.00,,---,0.00,VWS V14.00,2013-11-08 23:53:00,
2013-11-08 17:55:00,51.0,44.4,29.96,South,186,0.0,0.0,78,0.00,,---,0.00,VWS V14.00,2013-11-08 23:55:00,
2013-11-08 17:57:00,50.5,44.2,29.96,SW,223,0.0,0.0,79,0.00,,---,0.00,VWS V14.00,2013-11-08 23:57:00,
2013-11-08 17:58:00,50.2,44.0,29.96,SW,232,0.0,0.0,79,0.00,,---,0.00,VWS V14.00,2013-11-08 23:58:00,
2013-11-08 17:59:00,50.2,44.0,29.96,SW,226,0.0,0.0,79,0.00,,---,0.00,VWS V14.00,2013-11-08 23:59:00,
2013-11-08 18:00:00,50.1,44.2,29.96,WSW,239,0.0,0.0,80,0.00,,---,0.00,VWS V14.00,2013-11-09 00:00:00,
2013-11-08 18:02:00,49.8,43.9,29.98,SW,230,0.0,0.0,80,0.00,,---,0.00,VWS V14.00,2013-11-09 00:02:00,
2013-11-08 18:03:00,49.5,43.6,29.98,SW,232,0.0,0.0,80,0.00,,---,0.00,VWS V14.00,2013-11-09 00:03:00,
2013-11-08 18:04:00,49.5,43.6,29.98,WSW,241,0.0,0.0,80,0.00,,---,0.00,VWS V14.00,2013-11-09 00:04:00,
2013-11-08 18:05:00,49.5,43.6,29.98,SW,227,0.0,0.0,80,0.00,,---,0.00,VWS V14.00,2013-11-09 00:05:00,
2013-11-08 18:07:00,49.2,43.3,29.98,West,272,0.0,0.0,80,0.00,,---,0.00,VWS V14.00,2013-11-09 00:07:00,
2013-11-08 18:08:00,49.2,43.3,29.98,WSW,243,0.0,0.0,80,0.00,,---,0.00,VWS V14.00,2013-11-09 00:08:00,
2013-11-08 18:09:00,49.1,43.2,29.98,WSW,241,0.0,0.0,80,0.00,,---,0.00,VWS V14.00,2013-11-09 00:09:00,
2013-11-08 18:10:00,48.9,43.3,29.98,WSW,258,0.0,0.0,81,0.00,,---,0.00,VWS V14.00,2013-11-09 00:10:00,
2013-11-08 18:12:00,48.8,43.2,29.98,West,265,0.0,0.0,81,0.00,,---,0.00,VWS V14.00,2013-11-09 00:12:00,
2013-11-08 18:13:00,48.6,43.0,29.98,SW,232,0.0,0.0,81,0.00,,---,0.00,VWS V14.00,2013-11-09 00:13:00,
2013-11-08 18:14:00,48.6,43.4,29.98,West,264,0.0,0.0,82,0.00,,---,0.00,VWS V14.00,2013-11-09 00:14:00,
2013-11-08 18:15:00,48.5,43.3,29.99,WSW,241,0.0,0.0,82,0.00,,---,0.00,VWS V14.00,2013-11-09 00:15:00,
2013-11-08 18:17:00,48.3,43.1,29.99,WSW,257,0.0,0.0,82,0.00,,---,0.00,VWS V14.00,2013-11-09 00:17:00,
2013-11-08 18:18:00,48.3,43.1,29.99,West,261,0.0,0.0,82,0.00,,---,0.00,VWS V14.00,2013-11-09 00:18:00,
2013-11-08 18:19:00,48.3,43.4,29.99,WSW,241,0.0,0.0,83,0.00,,---,0.00,VWS V14.00,2013-11-09 00:19:00,
2013-11-08 18:20:00,48.2,43.3,29.99,WSW,243,0.0,0.0,83,0.00,,---,0.00,VWS V14.00,2013-11-09 00:20:00,
2013-11-08 18:21:00,48.2,43.3,29.99,WSW,250,0.0,0.0,83,0.00,,---,0.00,VWS V14.00,2013-11-09 00:21:00,
2013-11-08 18:22:00,48.2,43.3,29.99,West,263,0.0,0.0,83,0.00,,---,0.00,VWS V14.00,2013-11-09 00:22:00,
2013-11-08 18:23:00,48.0,43.1,29.99,West,263,0.0,0.0,83,0.00,,---,0.00,VWS V14.00,2013-11-09 00:23:00,
2013-11-08 18:24:00,47.9,43.0,29.99,West,274,0.0,0.0,83,0.00,,---,0.00,VWS V14.00,2013-11-09 00:24:00,
2013-11-08 18:25:00,47.9,43.0,29.99,West,265,0.0,0.0,83,0.00,,---,0.00,VWS V14.00,2013-11-09 00:25:00,
2013-11-08 18:26:00,47.7,42.8,29.99,SW,227,0.0,0.0,83,0.00,,---,0.00,VWS V14.00,2013-11-09 00:26:00,
2013-11-08 18:27:00,47.6,42.7,29.99,West,270,0.0,0.0,83,0.00,,---,0.00,VWS V14.00,2013-11-09 00:27:00,
2013-11-08 18:28:00,47.6,43.0,29.99,SW,224,0.0,0.0,84,0.00,,---,0.00,VWS V14.00,2013-11-09 00:28:00,
2013-11-08 18:30:00,47.6,43.0,29.99,WSW,256,0.0,0.0,84,0.00,,---,0.00,VWS V14.00,2013-11-09 00:30:00,
2013-11-08 18:32:00,47.3,42.7,30.00,SW,234,0.0,0.0,84,0.00,,---,0.00,VWS V14.00,2013-11-09 00:32:00,
2013-11-08 18:33:00,47.3,43.0,30.00,SW,216,0.0,0.0,85,0.00,,---,0.00,VWS V14.00,2013-11-09 00:33:00,
2013-11-08 18:35:00,47.1,42.8,30.00,SSW,209,6.0,7.0,85,0.00,,---,0.00,VWS V14.00,2013-11-09 00:35:00,
2013-11-08 18:37:00,47.0,42.7,30.00,West,277,2.0,7.0,85,0.00,,---,0.00,VWS V14.00,2013-11-09 00:37:00,
2013-11-08 18:38:00,47.0,42.7,30.00,West,275,2.0,7.0,85,0.00,,---,0.00,VWS V14.00,2013-11-09 00:38:00,
2013-11-08 18:39:00,47.0,42.7,30.00,WSW,257,5.0,7.0,85,0.00,,---,0.00,VWS V14.00,2013-11-09 00:39:00,
2013-11-08 18:40:00,46.8,42.8,30.00,SW,232,2.0,7.0,86,0.00,,---,0.00,VWS V14.00,2013-11-09 00:40:00,
2013-11-08 18:42:00,46.8,42.8,30.00,WSW,239,1.0,7.0,86,0.00,,---,0.00,VWS V14.00,2013-11-09 00:42:00,
2013-11-08 18:43:00,46.8,42.8,30.00,WSW,240,2.0,7.0,86,0.00,,---,0.00,VWS V14.00,2013-11-09 00:43:00,
2013-11-08 18:44:00,46.7,42.7,30.00,WSW,240,5.0,7.0,86,0.00,,---,0.00,VWS V14.00,2013-11-09 00:44:00,
2013-11-08 18:45:00,46.7,42.7,30.00,WSW,247,5.0,7.0,86,0.00,,---,0.00,VWS V14.00,2013-11-09 00:45:00,
2013-11-08 18:46:00,46.7,42.7,30.00,West,274,1.0,7.0,86,0.00,,---,0.00,VWS V14.00,2013-11-09 00:46:00,
2013-11-08 18:47:00,46.7,42.7,30.00,West,261,7.0,7.0,86,0.00,,---,0.00,VWS V14.00,2013-11-09 00:47:00,
2013-11-08 18:48:00,46.5,42.5,30.00,SW,223,3.0,10.0,86,0.00,,---,0.00,VWS V14.00,2013-11-09 00:48:00,
2013-11-08 18:49:00,46.5,42.8,30.00,West,271,5.0,10.0,87,0.00,,---,0.00,VWS V14.00,2013-11-09 00:49:00,
2013-11-08 18:50:00,46.4,42.8,30.00,WSW,250,5.0,10.0,87,0.00,,---,0.00,VWS V14.00,2013-11-09 00:50:00,
2013-11-08 18:51:00,46.4,42.8,30.00,WSW,254,1.0,10.0,87,0.00,,---,0.00,VWS V14.00,2013-11-09 00:51:00,
2013-11-08 18:52:00,46.4,42.8,30.00,West,268,2.0,10.0,87,0.00,,---,0.00,VWS V14.00,2013-11-09 00:52:00,
2013-11-08 18:53:00,46.4,42.8,30.00,West,268,1.0,10.0,87,0.00,,---,0.00,VWS V14.00,2013-11-09 00:53:00,
2013-11-08 18:54:00,46.2,42.5,30.00,West,277,6.0,10.0,87,0.00,,---,0.00,VWS V14.00,2013-11-09 00:54:00,
2013-11-08 18:55:00,46.2,42.5,30.00,SW,227,2.0,10.0,87,0.00,,---,0.00,VWS V14.00,2013-11-09 00:55:00,
2013-11-08 18:56:00,46.2,42.5,30.00,WSW,248,7.0,10.0,87,0.00,,---,0.00,VWS V14.00,2013-11-09 00:56:00,
2013-11-08 18:57:00,46.2,42.5,30.00,SW,236,2.0,10.0,87,0.00,,---,0.00,VWS V14.00,2013-11-09 00:57:00,
2013-11-08 18:59:00,46.2,42.8,30.00,West,277,3.0,10.0,88,0.00,,---,0.00,VWS V14.00,2013-11-09 00:59:00,
2013-11-08 19:00:00,46.1,43.0,30.02,West,272,5.0,10.0,89,0.00,,---,0.00,VWS V14.00,2013-11-09 01:00:00,
2013-11-08 19:01:00,46.1,43.0,30.02,West,272,2.0,10.0,89,0.00,,---,0.00,VWS V14.00,2013-11-09 01:01:00,
2013-11-08 19:02:00,46.1,43.3,30.02,SW,230,6.0,10.0,90,0.00,,---,0.00,VWS V14.00,2013-11-09 01:02:00,
2013-11-08 19:04:00,46.1,43.3,30.02,West,265,3.0,10.0,90,0.00,,---,0.00,VWS V14.00,2013-11-09 01:04:00,
2013-11-08 19:05:00,46.0,42.7,30.02,West,267,0.0,10.0,88,0.00,,---,0.00,VWS V14.00,2013-11-09 01:05:00,
2013-11-08 19:06:00,46.0,42.7,30.02,WNW,302,6.0,10.0,88,0.00,,---,0.00,VWS V14.00,2013-11-09 01:06:00,
2013-11-08 19:08:00,46.0,43.2,30.02,SW,219,6.0,11.0,90,0.00,,---,0.00,VWS V14.00,2013-11-09 01:08:00,
2013-11-08 19:09:00,46.0,43.2,30.02,WSW,258,2.0,11.0,90,0.00,,---,0.00,VWS V14.00,2013-11-09 01:09:00,
2013-11-08 19:11:00,46.0,43.2,30.02,SW,230,4.0,11.0,90,0.00,,---,0.00,VWS V14.00,2013-11-09 01:11:00,
2013-11-08 19:13:00,45.8,43.0,30.02,WSW,239,2.0,11.0,90,0.00,,---,0.00,VWS V14.00,2013-11-09 01:13:00,
2013-11-08 19:14:00,45.8,43.0,30.02,SW,219,4.0,11.0,90,0.00,,---,0.00,VWS V14.00,2013-11-09 01:14:00,
2013-11-08 19:15:00,45.8,43.0,30.02,SW,219,2.0,11.0,90,0.00,,---,0.00,VWS V14.00,2013-11-09 01:15:00,
2013-11-08 19:17:00,45.8,42.8,30.02,SW,234,3.0,11.0,89,0.00,,---,0.00,VWS V14.00,2013-11-09 01:17:00,
2013-11-08 19:18:00,45.8,43.0,30.02,SW,229,5.0,11.0,90,0.00,,---,0.00,VWS V14.00,2013-11-09 01:18:00,
2013-11-08 19:19:00,45.8,43.0,30.02,SW,229,5.0,11.0,90,0.00,,---,0.00,VWS V14.00,2013-11-09 01:19:00,
2013-11-08 19:20:00,45.8,43.0,30.02,West,274,2.0,11.0,90,0.00,,---,0.00,VWS V14.00,2013-11-09 01:20:00,
2013-11-08 19:22:00,45.8,43.0,30.02,WSW,258,2.0,11.0,90,0.00,,---,0.00,VWS V14.00,2013-11-09 01:22:00,
2013-11-08 19:23:00,45.8,43.0,30.02,WSW,251,5.0,11.0,90,0.00,,---,0.00,VWS V14.00,2013-11-09 01:23:00,
2013-11-08 19:24:00,45.7,42.7,30.02,West,261,1.0,11.0,89,0.00,,---,0.00,VWS V14.00,2013-11-09 01:24:00,
2013-11-08 19:25:00,45.7,42.7,30.02,WSW,254,2.0,11.0,89,0.00,,---,0.00,VWS V14.00,2013-11-09 01:25:00,
2013-11-08 19:27:00,45.7,42.9,30.02,WSW,257,0.0,11.0,90,0.00,,---,0.00,VWS V14.00,2013-11-09 01:27:00,
2013-11-08 19:28:00,45.7,42.9,30.02,SW,219,3.0,11.0,90,0.00,,---,0.00,VWS V14.00,2013-11-09 01:28:00,
2013-11-08 19:29:00,45.7,43.2,30.02,SW,226,2.0,11.0,91,0.00,,---,0.00,VWS V14.00,2013-11-09 01:29:00,
2013-11-08 19:30:00,45.7,43.2,30.02,WSW,246,3.0,11.0,91,0.00,,---,0.00,VWS V14.00,2013-11-09 01:30:00,
2013-11-08 19:32:00,45.7,43.2,30.02,WNW,298,10.0,10.0,91,0.00,,---,0.00,VWS V14.00,2013-11-09 01:32:00,
2013-11-08 19:33:00,45.7,43.2,30.02,WSW,254,3.0,10.0,91,0.00,,---,0.00,VWS V14.00,2013-11-09 01:33:00,
2013-11-08 19:34:00,45.8,43.3,30.02,West,275,7.0,10.0,91,0.00,,---,0.00,VWS V14.00,2013-11-09 01:34:00,
2013-11-08 19:35:00,45.7,43.2,30.02,West,270,1.0,10.0,91,0.00,,---,0.00,VWS V14.00,2013-11-09 01:35:00,
2013-11-08 19:36:00,45.7,43.5,30.02,WSW,256,3.0,10.0,92,0.00,,---,0.00,VWS V14.00,2013-11-09 01:36:00,
2013-11-08 19:37:00,45.7,42.9,30.02,SW,230,3.0,10.0,90,0.00,,---,0.00,VWS V14.00,2013-11-09 01:37:00,
2013-11-08 19:38:00,45.7,42.9,30.02,West,278,2.0,10.0,90,0.00,,---,0.00,VWS V14.00,2013-11-09 01:38:00,
2013-11-08 19:39:00,45.7,43.5,30.02,West,271,1.0,10.0,92,0.00,,---,0.00,VWS V14.00,2013-11-09 01:39:00,
2013-11-08 19:40:00,45.7,43.2,30.02,WSW,247,4.0,10.0,91,0.00,,---,0.00,VWS V14.00,2013-11-09 01:40:00,
2013-11-08 19:41:00,45.7,43.2,30.02,West,274,6.0,10.0,91,0.00,,---,0.00,VWS V14.00,2013-11-09 01:41:00,
2013-11-08 19:42:00,45.7,43.2,30.02,SW,229,4.0,10.0,91,0.00,,---,0.00,VWS V14.00,2013-11-09 01:42:00,
2013-11-08 19:43:00,45.7,43.2,30.02,SW,224,3.0,10.0,91,0.00,,---,0.00,VWS V14.00,2013-11-09 01:43:00,
2013-11-08 19:44:00,45.5,43.0,30.02,WNW,285,5.0,10.0,91,0.00,,---,0.00,VWS V14.00,2013-11-09 01:44:00,
2013-11-08 19:45:00,45.5,43.0,30.02,SW,229,3.0,10.0,91,0.00,,---,0.00,VWS V14.00,2013-11-09 01:45:00,
2013-11-08 19:46:00,45.5,43.0,30.03,WSW,253,2.0,10.0,91,0.00,,---,0.00,VWS V14.00,2013-11-09 01:46:00,
2013-11-08 19:47:00,45.5,43.0,30.03,West,264,6.0,10.0,91,0.00,,---,0.00,VWS V14.00,2013-11-09 01:47:00,
2013-11-08 19:48:00,45.5,43.3,30.03,West,263,8.0,10.0,92,0.00,,---,0.00,VWS V14.00,2013-11-09 01:48:00,
2013-11-08 19:50:00,45.5,43.0,30.03,West,271,5.0,10.0,91,0.00,,---,0.00,VWS V14.00,2013-11-09 01:50:00,
2013-11-08 19:52:00,45.4,42.9,30.03,West,271,2.0,10.0,91,0.00,,---,0.00,VWS V14.00,2013-11-09 01:52:00,
2013-11-08 19:53:00,45.4,43.5,30.03,WSW,250,4.0,10.0,93,0.00,,---,0.00,VWS V14.00,2013-11-09 01:53:00,
2013-11-08 19:55:00,45.4,43.5,30.03,West,271,6.0,10.0,93,0.00,,---,0.00,VWS V14.00,2013-11-09 01:55:00,
2013-11-08 19:56:00,45.4,43.5,30.03,West,265,4.0,10.0,93,0.00,,---,0.00,VWS V14.00,2013-11-09 01:56:00,
2013-11-08 19:57:00,45.4,43.5,30.03,West,270,7.0,10.0,93,0.00,,---,0.00,VWS V14.00,2013-11-09 01:57:00,
2013-11-08 19:59:00,45.4,43.2,30.03,WSW,247,5.0,10.0,92,0.00,,---,0.00,VWS V14.00,2013-11-09 01:59:00,
2013-11-08 20:00:00,45.4,43.2,30.03,WSW,241,3.0,10.0,92,0.00,,---,0.00,VWS V14.00,2013-11-09 02:00:00,
2013-11-08 20:01:00,45.4,43.2,30.03,WSW,254,2.0,10.0,92,0.00,,---,0.00,VWS V14.00,2013-11-09 02:01:00,
2013-11-08 20:02:00,45.2,43.0,30.03,WSW,243,0.0,5.0,92,0.00,,---,0.00,VWS V14.00,2013-11-09 02:02:00,
2013-11-08 20:03:00,45.2,43.0,30.03,SW,220,4.0,7.0,92,0.00,,---,0.00,VWS V14.00,2013-11-09 02:03:00,
2013-11-08 20:04:00,45.2,43.3,30.03,West,261,2.0,7.0,93,0.00,,---,0.00,VWS V14.00,2013-11-09 02:04:00,
2013-11-08 20:05:00,45.2,43.0,30.03,SW,224,6.0,7.0,92,0.00,,---,0.00,VWS V14.00,2013-11-09 02:05:00,
2013-11-08 20:06:00,45.2,43.0,30.03,West,267,2.0,7.0,92,0.00,,---,0.00,VWS V14.00,2013-11-09 02:06:00,
2013-11-08 20:07:00,45.2,43.0,30.03,SSW,213,6.0,7.0,92,0.00,,---,0.00,VWS V14.00,2013-11-09 02:07:00,
2013-11-08 20:08:00,45.2,43.3,30.03,WSW,258,5.0,7.0,93,0.00,,---,0.00,VWS V14.00,2013-11-09 02:08:00,
2013-11-08 20:09:00,45.1,42.9,30.03,West,263,3.0,7.0,92,0.00,,---,0.00,VWS V14.00,2013-11-09 02:09:00,
2013-11-08 20:10:00,45.1,43.2,30.03,West,277,4.0,7.0,93,0.00,,---,0.00,VWS V14.00,2013-11-09 02:10:00,
2013-11-08 20:11:00,45.1,43.2,30.03,West,274,0.0,7.0,93,0.00,,---,0.00,VWS V14.00,2013-11-09 02:11:00,
2013-11-08 20:13:00,45.1,42.9,30.03,West,268,0.0,7.0,92,0.00,,---,0.00,VWS V14.00,2013-11-09 02:13:00,
2013-11-08 20:14:00,45.1,42.9,30.03,West,268,0.0,7.0,92,0.00,,---,0.00,VWS V14.00,2013-11-09 02:14:00,
2013-11-08 20:15:00,44.9,42.7,30.02,West,277,0.0,7.0,92,0.00,,---,0.00,VWS V14.00,2013-11-09 02:15:00,
2013-11-08 20:16:00,44.9,42.7,30.02,West,277,0.0,7.0,92,0.00,,---,0.00,VWS V14.00,2013-11-09 02:16:00,
2013-11-08 20:18:00,44.9,42.7,30.02,West,277,0.0,7.0,92,0.00,,---,0.00,VWS V14.00,2013-11-09 02:18:00,
2013-11-08 20:19:00,44.9,42.7,30.02,West,277,0.0,7.0,92,0.00,,---,0.00,VWS V14.00,2013-11-09 02:19:00,
2013-11-08 20:20:00,44.9,42.7,30.02,West,277,0.0,7.0,92,0.00,,---,0.00,VWS V14.00,2013-11-09 02:20:00,
2013-11-08 20:21:00,44.9,42.7,30.02,West,277,0.0,7.0,92,0.00,,---,0.00,VWS V14.00,2013-11-09 02:21:00,
2013-11-08 20:24:00,44.8,42.6,30.02,WSW,254,0.0,7.0,92,0.00,,---,0.00,VWS V14.00,2013-11-09 02:24:00,
2013-11-08 20:25:00,44.8,42.6,30.02,SSW,199,0.0,7.0,92,0.00,,---,0.00,VWS V14.00,2013-11-09 02:25:00,
2013-11-08 20:26:00,44.8,42.6,30.02,SSW,199,0.0,7.0,92,0.00,,---,0.00,VWS V14.00,2013-11-09 02:26:00,
2013-11-08 20:29:00,44.9,42.7,30.02,SW,215,0.0,7.0,92,0.00,,---,0.00,VWS V14.00,2013-11-09 02:29:00,
2013-11-08 20:30:00,44.9,43.0,30.02,SW,215,0.0,7.0,93,0.00,,---,0.00,VWS V14.00,2013-11-09 02:30:00,
2013-11-08 20:31:00,44.9,43.0,30.02,SW,219,0.0,7.0,93,0.00,,---,0.00,VWS V14.00,2013-11-09 02:31:00,
2013-11-08 20:34:00,44.8,42.9,30.02,WSW,237,0.0,0.0,93,0.00,,---,0.00,VWS V14.00,2013-11-09 02:34:00,
2013-11-08 20:35:00,44.8,42.9,30.02,WSW,237,0.0,0.0,93,0.00,,---,0.00,VWS V14.00,2013-11-09 02:35:00,
2013-11-08 20:36:00,44.8,42.9,30.02,WSW,237,0.0,0.0,93,0.00,,---,0.00,VWS V14.00,2013-11-09 02:36:00,
2013-11-08 20:39:00,44.8,42.9,30.02,WSW,237,0.0,0.0,93,0.00,,---,0.00,VWS V14.00,2013-11-09 02:39:00,
2013-11-08 20:40:00,44.8,42.9,30.02,WSW,237,0.0,0.0,93,0.00,,---,0.00,VWS V14.00,2013-11-09 02:40:00,
2013-11-08 20:41:00,44.6,42.7,30.02,WSW,237,0.0,0.0,93,0.00,,---,0.00,VWS V14.00,2013-11-09 02:41:00,
2013-11-08 20:44:00,44.6,42.7,30.02,SW,233,0.0,0.0,93,0.00,,---,0.00,VWS V14.00,2013-11-09 02:44:00,
2013-11-08 20:46:00,44.6,42.7,30.02,SW,233,0.0,0.0,93,0.00,,---,0.00,VWS V14.00,2013-11-09 02:46:00,
2013-11-08 20:47:00,44.6,42.7,30.02,SW,233,0.0,0.0,93,0.00,,---,0.00,VWS V14.00,2013-11-09 02:47:00,
2013-11-08 20:49:00,44.8,42.9,30.02,West,267,0.0,0.0,93,0.00,,---,0.00,VWS V14.00,2013-11-09 02:49:00,
2013-11-08 20:50:00,44.6,42.7,30.02,West,267,0.0,0.0,93,0.00,,---,0.00,VWS V14.00,2013-11-09 02:50:00,
2013-11-08 20:51:00,44.6,42.7,30.02,West,267,0.0,0.0,93,0.00,,---,0.00,VWS V14.00,2013-11-09 02:51:00,
2013-11-08 20:52:00,44.5,42.6,30.02,West,267,0.0,0.0,93,0.00,,---,0.00,VWS V14.00,2013-11-09 02:52:00,
2013-11-08 20:54:00,44.3,42.4,30.02,West,267,0.0,0.0,93,0.00,,---,0.00,VWS V14.00,2013-11-09 02:54:00,
2013-11-08 20:55:00,44.2,42.3,30.02,West,267,0.0,0.0,93,0.00,,---,0.00,VWS V14.00,2013-11-09 02:55:00,
2013-11-08 20:56:00,44.2,42.3,30.02,West,267,0.0,0.0,93,0.01,,---,0.01,VWS V14.00,2013-11-09 02:56:00,
2013-11-08 20:57:00,44.2,42.3,30.02,West,267,0.0,0.0,93,0.01,,---,0.01,VWS V14.00,2013-11-09 02:57:00,
2013-11-08 20:58:00,44.2,42.0,30.02,West,267,0.0,0.0,92,0.01,,---,0.01,VWS V14.00,2013-11-09 02:58:00,
2013-11-08 20:59:00,44.1,41.9,30.02,West,267,0.0,0.0,92,0.01,,---,0.01,VWS V14.00,2013-11-09 02:59:00,
2013-11-08 21:00:00,44.1,41.9,30.03,West,267,0.0,0.0,92,0.01,,---,0.01,VWS V14.00,2013-11-09 03:00:00,
2013-11-08 21:01:00,43.9,41.7,30.03,West,267,0.0,0.0,92,0.01,,---,0.01,VWS V14.00,2013-11-09 03:01:00,
2013-11-08 21:02:00,43.9,41.7,30.03,West,267,0.0,0.0,92,0.01,,---,0.01,VWS V14.00,2013-11-09 03:02:00,
2013-11-08 21:03:00,43.9,41.7,30.03,West,267,0.0,0.0,92,0.01,,---,0.01,VWS V14.00,2013-11-09 03:03:00,
2013-11-08 21:05:00,43.9,41.7,30.03,West,267,0.0,0.0,92,0.01,,---,0.01,VWS V14.00,2013-11-09 03:05:00,
2013-11-08 21:06:00,43.9,41.7,30.03,West,267,0.0,0.0,92,0.01,,---,0.01,VWS V14.00,2013-11-09 03:06:00,
2013-11-08 21:07:00,43.8,41.6,30.03,West,267,0.0,0.0,92,0.01,,---,0.01,VWS V14.00,2013-11-09 03:07:00,
2013-11-08 21:08:00,43.8,41.6,30.03,West,267,0.0,0.0,92,0.01,,---,0.01,VWS V14.00,2013-11-09 03:08:00,
2013-11-08 21:10:00,43.6,41.4,30.03,West,267,0.0,0.0,92,0.01,,---,0.01,VWS V14.00,2013-11-09 03:10:00,
2013-11-08 21:11:00,43.5,41.3,30.03,West,267,0.0,0.0,92,0.01,,---,0.01,VWS V14.00,2013-11-09 03:11:00,
2013-11-08 21:12:00,43.5,41.3,30.03,West,267,0.0,0.0,92,0.01,,---,0.01,VWS V14.00,2013-11-09 03:12:00,
2013-11-08 21:13:00,43.5,41.3,30.03,West,267,0.0,0.0,92,0.01,,---,0.01,VWS V14.00,2013-11-09 03:13:00,
2013-11-08 21:15:00,43.3,41.1,30.05,West,267,0.0,0.0,92,0.01,,---,0.01,VWS V14.00,2013-11-09 03:15:00,
2013-11-08 21:17:00,43.3,41.1,30.05,West,267,0.0,0.0,92,0.01,,---,0.01,VWS V14.00,2013-11-09 03:17:00,
2013-11-08 21:18:00,43.2,41.0,30.05,West,267,0.0,0.0,92,0.01,,---,0.01,VWS V14.00,2013-11-09 03:18:00,
2013-11-08 21:20:00,43.1,40.9,30.05,West,267,0.0,0.0,92,0.01,,---,0.01,VWS V14.00,2013-11-09 03:20:00,
2013-11-08 21:21:00,43.1,40.9,30.05,West,267,0.0,0.0,92,0.01,,---,0.01,VWS V14.00,2013-11-09 03:21:00,
2013-11-08 21:23:00,42.9,40.7,30.05,West,267,0.0,0.0,92,0.01,,---,0.01,VWS V14.00,2013-11-09 03:23:00,
2013-11-08 21:24:00,42.8,40.6,30.05,West,267,0.0,0.0,92,0.01,,---,0.01,VWS V14.00,2013-11-09 03:24:00,
2013-11-08 21:25:00,42.8,40.6,30.05,West,267,0.0,0.0,92,0.01,,---,0.01,VWS V14.00,2013-11-09 03:25:00,
2013-11-08 21:26:00,42.6,40.4,30.05,West,267,0.0,0.0,92,0.01,,---,0.01,VWS V14.00,2013-11-09 03:26:00,
2013-11-08 21:28:00,42.3,40.2,30.05,West,267,0.0,0.0,92,0.01,,---,0.01,VWS V14.00,2013-11-09 03:28:00,
2013-11-08 21:29:00,42.2,40.0,30.05,West,267,0.0,0.0,92,0.01,,---,0.01,VWS V14.00,2013-11-09 03:29:00,
2013-11-08 21:31:00,42.1,40.0,30.05,West,267,0.0,0.0,92,0.01,,---,0.01,VWS V14.00,2013-11-09 03:31:00,
2013-11-08 21:33:00,41.8,39.7,30.05,West,267,0.0,0.0,92,0.01,,---,0.01,VWS V14.00,2013-11-09 03:33:00,
2013-11-08 21:34:00,41.6,39.2,30.05,West,267,0.0,0.0,91,0.01,,---,0.01,VWS V14.00,2013-11-09 03:34:00,
2013-11-08 21:36:00,41.5,39.1,30.05,West,267,0.0,0.0,91,0.01,,---,0.01,VWS V14.00,2013-11-09 03:36:00,
2013-11-08 21:38:00,41.2,38.8,30.05,West,267,0.0,0.0,91,0.01,,---,0.01,VWS V14.00,2013-11-09 03:38:00,
2013-11-08 21:39:00,41.2,38.8,30.05,West,267,0.0,0.0,91,0.01,,---,0.01,VWS V14.00,2013-11-09 03:39:00,
2013-11-08 21:40:00,40.9,38.5,30.05,West,267,0.0,0.0,91,0.01,,---,0.01,VWS V14.00,2013-11-09 03:40:00,
2013-11-08 21:41:00,40.8,38.4,30.05,West,267,0.0,0.0,91,0.01,,---,0.01,VWS V14.00,2013-11-09 03:41:00,
2013-11-08 21:43:00,40.6,38.2,30.05,West,267,0.0,0.0,91,0.01,,---,0.01,VWS V14.00,2013-11-09 03:43:00,
2013-11-08 21:44:00,40.6,38.2,30.05,West,267,0.0,0.0,91,0.01,,---,0.01,VWS V14.00,2013-11-09 03:44:00,
2013-11-08 21:45:00,40.5,38.1,30.05,West,267,0.0,0.0,91,0.01,,---,0.01,VWS V14.00,2013-11-09 03:45:00,
2013-11-08 21:46:00,40.5,38.1,30.07,West,267,0.0,0.0,91,0.01,,---,0.01,VWS V14.00,2013-11-09 03:46:00,
2013-11-08 21:47:00,40.5,38.1,30.07,West,267,0.0,0.0,91,0.01,,---,0.01,VWS V14.00,2013-11-09 03:47:00,
2013-11-08 21:48:00,40.5,38.1,30.07,West,267,0.0,0.0,91,0.01,,---,0.01,VWS V14.00,2013-11-09 03:48:00,
2013-11-08 21:49:00,40.5,38.1,30.07,West,267,0.0,0.0,91,0.01,,---,0.01,VWS V14.00,2013-11-09 03:49:00,
2013-11-08 21:50:00,40.5,38.1,30.07,West,267,0.0,0.0,91,0.01,,---,0.01,VWS V14.00,2013-11-09 03:50:00,
2013-11-08 21:51:00,40.5,38.1,30.07,West,267,0.0,0.0,91,0.01,,---,0.01,VWS V14.00,2013-11-09 03:51:00,
2013-11-08 21:52:00,40.5,38.1,30.07,West,267,0.0,0.0,91,0.01,,---,0.01,VWS V14.00,2013-11-09 03:52:00,
2013-11-08 21:53:00,40.5,38.1,30.07,West,267,0.0,0.0,91,0.01,,---,0.01,VWS V14.00,2013-11-09 03:53:00,
2013-11-08 21:54:00,40.5,38.1,30.07,West,267,0.0,0.0,91,0.01,,---,0.01,VWS V14.00,2013-11-09 03:54:00,
2013-11-08 21:56:00,40.5,38.1,30.07,West,267,0.0,0.0,91,0.01,,---,0.01,VWS V14.00,2013-11-09 03:56:00,
2013-11-08 21:57:00,40.3,37.9,30.07,West,267,0.0,0.0,91,0.01,,---,0.01,VWS V14.00,2013-11-09 03:57:00,
2013-11-08 21:58:00,40.5,38.4,30.07,West,267,0.0,0.0,92,0.01,,---,0.01,VWS V14.00,2013-11-09 03:58:00,
2013-11-08 21:59:00,40.5,38.4,30.07,West,267,0.0,0.0,92,0.01,,---,0.01,VWS V14.00,2013-11-09 03:59:00,
2013-11-08 22:01:00,40.8,38.7,30.07,West,267,0.0,0.0,92,0.00,,---,0.01,VWS V14.00,2013-11-09 04:01:00,
2013-11-08 22:02:00,40.8,38.7,30.07,West,267,0.0,0.0,92,0.00,,---,0.01,VWS V14.00,2013-11-09 04:02:00,
2013-11-08 22:03:00,40.9,38.8,30.07,West,267,0.0,0.0,92,0.00,,---,0.01,VWS V14.00,2013-11-09 04:03:00,
2013-11-08 22:04:00,41.1,39.0,30.07,West,267,0.0,0.0,92,0.00,,---,0.01,VWS V14.00,2013-11-09 04:04:00,
2013-11-08 22:07:00,41.1,39.0,30.07,West,267,0.0,0.0,92,0.00,,---,0.01,VWS V14.00,2013-11-09 04:07:00,
2013-11-08 22:08:00,40.9,39.0,30.07,West,267,0.0,0.0,93,0.00,,---,0.01,VWS V14.00,2013-11-09 04:08:00,
2013-11-08 22:09:00,40.9,39.0,30.07,West,267,0.0,0.0,93,0.00,,---,0.01,VWS V14.00,2013-11-09 04:09:00,
2013-11-08 22:10:00,41.1,39.2,30.07,West,267,0.0,0.0,93,0.00,,---,0.01,VWS V14.00,2013-11-09 04:10:00,
2013-11-08 22:12:00,41.1,39.2,30.07,West,267,0.0,0.0,93,0.00,,---,0.01,VWS V14.00,2013-11-09 04:12:00,
2013-11-08 22:13:00,40.9,39.0,30.07,West,267,0.0,0.0,93,0.00,,---,0.01,VWS V14.00,2013-11-09 04:13:00,
2013-11-08 22:14:00,40.6,38.7,30.07,West,267,0.0,0.0,93,0.00,,---,0.01,VWS V14.00,2013-11-09 04:14:00,